LPE2431 LEBL-SPJC

Flight info

Callsign LPE2431
Flight time 12h 1m
Altitude 30000
Route SENIA9D SENIA Z596 CRETA/N0480F290 Z596 NEXAS N975 CJN/N0378F130 N975 CCS/N0480F290 DCT BIRBA DCT TAGUX DCT ATECA DCT GODGI DCT LUTAK/M081F300 DCT 35N020W 33N025W 30N030W 27N035W/M081F320 23N040W 18N046W/N0486F320 14N051W DCT TRAPP/N0481F340 UM527 VADOS PADIS2
Aircraft B777/H-HSDE1E2E3FGHIJ2J3J4J5M1RWXY/LB1D1

Departure

Time 2026-04-27 07:48
Airport Josep Tarradellas Barcelona-El Prat Airport (LEBL)

Arrival

Time 2026-04-27 19:49
Airport Jorge Chávez International Airport (SPJC)
Time Latitude Longitude Altitude Speed Heading
2026-04-27 07:19 41.29309 2.07686 26 ft 0 kts 213°
2026-04-27 07:29 41.29309 2.07687 23 ft 2 kts 213°
2026-04-27 07:30 41.29323 2.07699 27 ft 2 kts 218°
2026-04-27 07:30 41.29333 2.07715 27 ft 2 kts 249°
2026-04-27 07:30 41.29336 2.07736 27 ft 2 kts 279°
2026-04-27 07:30 41.29330 2.07755 27 ft 2 kts 326°
2026-04-27 07:31 41.29328 2.07757 27 ft 0 kts 328°
2026-04-27 07:41 41.29342 2.07746 25 ft 6 kts 328°
2026-04-27 07:41 41.29415 2.07757 24 ft 14 kts 57°
2026-04-27 07:41 41.29466 2.07898 26 ft 20 kts 67°
2026-04-27 07:41 41.29526 2.08087 26 ft 25 kts 67°
2026-04-27 07:42 41.29581 2.08302 26 ft 26 kts 76°
2026-04-27 07:42 41.29651 2.08543 26 ft 30 kts 66°
2026-04-27 07:42 41.29730 2.08780 25 ft 24 kts 65°
2026-04-27 07:42 41.29807 2.09002 23 ft 29 kts 65°
2026-04-27 07:43 41.29892 2.09240 24 ft 26 kts 65°
2026-04-27 07:43 41.29972 2.09473 25 ft 30 kts 65°
2026-04-27 07:43 41.30066 2.09748 25 ft 35 kts 66°
2026-04-27 07:43 41.30149 2.09994 27 ft 31 kts 65°
2026-04-27 07:44 41.30237 2.10248 25 ft 18 kts 65°
2026-04-27 07:44 41.30299 2.10423 27 ft 22 kts 64°
2026-04-27 07:44 41.30398 2.10566 26 ft 14 kts 20°
2026-04-27 07:44 41.30407 2.10569 26 ft 3 kts 19°
2026-04-27 07:45 41.30438 2.10581 25 ft 0 kts
2026-04-27 07:45 41.30445 2.10581 25 ft 4 kts
2026-04-27 07:45 41.30500 2.10548 23 ft 17 kts 327°
2026-04-27 07:46 41.30591 2.10452 22 ft 13 kts 290°
2026-04-27 07:46 41.30567 2.10350 19 ft 11 kts 241°
2026-04-27 07:46 41.30563 2.10341 19 ft 0 kts 241°
2026-04-27 07:46 41.30556 2.10323 19 ft 10 kts 241°
2026-04-27 07:47 41.30485 2.10142 20 ft 35 kts 243°
2026-04-27 07:47 41.30274 2.09520 20 ft 116 kts 246°
2026-04-27 07:47 41.29827 2.08202 26 ft 195 kts 245°
2026-04-27 07:47 41.29203 2.06376 440 ft 223 kts 245°
2026-04-27 07:48 41.28561 2.04556 1715 ft 217 kts 246°
2026-04-27 07:48 41.27916 2.02649 2166 ft 240 kts 246°
2026-04-27 07:48 41.27209 2.00564 2629 ft 251 kts 246°
2026-04-27 07:48 41.26492 1.98468 3409 ft 247 kts 245°
2026-04-27 07:49 41.25773 1.96379 4020 ft 253 kts 245°
2026-04-27 07:49 41.25012 1.94177 4335 ft 269 kts 245°
2026-04-27 07:49 41.24215 1.91876 4945 ft 276 kts 244°
2026-04-27 07:49 41.23408 1.89550 5637 ft 278 kts 244°
2026-04-27 07:50 41.22636 1.87191 6315 ft 279 kts 253°
2026-04-27 07:50 41.22273 1.84665 6829 ft 285 kts 263°
2026-04-27 07:50 41.22082 1.82027 7493 ft 287 kts 264°
2026-04-27 07:50 41.21809 1.79392 8174 ft 288 kts 259°
2026-04-27 07:51 41.21429 1.76767 8840 ft 290 kts 258°
2026-04-27 07:51 41.21027 1.74139 9505 ft 293 kts 259°
2026-04-27 07:51 41.20622 1.71470 10154 ft 294 kts 259°
2026-04-27 07:51 41.20256 1.69031 10585 ft 302 kts 259°
2026-04-27 07:52 41.19836 1.66192 10749 ft 323 kts 259°
2026-04-27 07:52 41.19428 1.63159 10916 ft 344 kts 261°
2026-04-27 07:52 41.19033 1.59931 11093 ft 365 kts 261°
2026-04-27 07:52 41.18629 1.56559 11531 ft 376 kts 261°
2026-04-27 07:53 41.18212 1.53089 12145 ft 382 kts 261°
2026-04-27 07:53 41.17788 1.49582 12843 ft 387 kts 261°
2026-04-27 07:53 41.17361 1.46086 13572 ft 390 kts 261°
2026-04-27 07:53 41.16920 1.42511 14277 ft 393 kts 261°
2026-04-27 07:54 41.16474 1.38913 14932 ft 396 kts 261°
2026-04-27 07:54 41.16023 1.35291 15587 ft 399 kts 261°
2026-04-27 07:54 41.15566 1.31638 16220 ft 403 kts 261°
2026-04-27 07:54 41.15103 1.27949 16840 ft 407 kts 261°
2026-04-27 07:55 41.14635 1.24229 17471 ft 411 kts 261°
2026-04-27 07:55 41.14161 1.20471 18100 ft 414 kts 261°
2026-04-27 07:55 41.13687 1.16726 18670 ft 418 kts 261°
2026-04-27 07:55 41.13204 1.12912 19222 ft 420 kts 261°
2026-04-27 07:56 41.12716 1.09077 19812 ft 422 kts 261°
2026-04-27 07:56 41.12224 1.05215 20326 ft 426 kts 261°
2026-04-27 07:56 41.11726 1.01321 20842 ft 430 kts 261°
2026-04-27 07:56 41.11223 0.97404 21389 ft 432 kts 261°
2026-04-27 07:57 41.10715 0.93446 21945 ft 434 kts 261°
2026-04-27 07:57 41.10203 0.89482 22479 ft 437 kts 261°
2026-04-27 07:57 41.09694 0.85548 22989 ft 440 kts 261°
2026-04-27 07:57 41.09174 0.81538 23513 ft 443 kts 261°
2026-04-27 07:58 41.08649 0.77499 23964 ft 446 kts 261°
2026-04-27 07:58 41.08117 0.73426 24368 ft 449 kts 261°
2026-04-27 07:58 41.07583 0.69339 24762 ft 452 kts 261°
2026-04-27 07:58 41.07041 0.65209 25167 ft 454 kts 260°
2026-04-27 07:59 41.06495 0.61061 25567 ft 457 kts 260°
2026-04-27 07:59 41.05400 0.52766 26317 ft 462 kts 260°
2026-04-27 07:59 41.04842 0.48561 26715 ft 464 kts 260°
2026-04-27 08:00 41.04279 0.44331 27062 ft 467 kts 260°
2026-04-27 08:00 41.03711 0.40077 27388 ft 470 kts 260°
2026-04-27 08:00 41.03139 0.35804 27743 ft 473 kts 260°
2026-04-27 08:00 41.02561 0.31500 28106 ft 475 kts 260°
2026-04-27 08:01 41.01978 0.27173 28431 ft 477 kts 260°
2026-04-27 08:01 41.01394 0.22848 28737 ft 479 kts 260°
2026-04-27 08:01 41.00810 0.18533 29036 ft 482 kts 260°
2026-04-27 08:01 41.00208 0.14103 29338 ft 484 kts 260°
2026-04-27 08:02 40.99619 0.09784 29718 ft 483 kts 260°
2026-04-27 08:02 40.99023 0.05418 30181 ft 481 kts 260°
2026-04-27 08:02 40.97823 -0.03325 30176 ft 481 kts 260°
2026-04-27 08:03 40.96626 -0.11989 30164 ft 478 kts 260°
2026-04-27 08:03 40.95422 -0.20660 30152 ft 479 kts 260°
2026-04-27 08:04 40.94210 -0.29340 30155 ft 480 kts 259°
2026-04-27 08:04 40.92992 -0.38016 30147 ft 480 kts 259°
2026-04-27 08:05 40.91765 -0.46702 30152 ft 480 kts 259°
2026-04-27 08:05 40.90539 -0.55334 30160 ft 480 kts 260°
2026-04-27 08:06 40.89303 -0.63985 30145 ft 478 kts 260°
2026-04-27 08:06 40.88066 -0.72607 30148 ft 477 kts 260°
2026-04-27 08:07 40.86648 -0.81146 30159 ft 475 kts 253°
2026-04-27 08:07 40.84374 -0.89339 30165 ft 474 kts 250°
2026-04-27 08:08 40.82075 -0.97434 30162 ft 474 kts 250°
2026-04-27 08:08 40.79791 -1.05599 30167 ft 474 kts 250°
2026-04-27 08:09 40.77512 -1.13770 30162 ft 474 kts 250°
2026-04-27 08:09 40.75222 -1.21947 30175 ft 475 kts 250°
2026-04-27 08:10 40.72936 -1.30081 30177 ft 476 kts 250°
2026-04-27 08:10 40.70632 -1.38269 30170 ft 476 kts 250°
2026-04-27 08:11 40.68321 -1.46465 30170 ft 477 kts 250°
2026-04-27 08:11 40.66005 -1.54655 30162 ft 477 kts 250°
2026-04-27 08:12 40.63682 -1.62841 30161 ft 477 kts 250°
2026-04-27 08:12 40.61370 -1.70963 30160 ft 476 kts 250°
2026-04-27 08:13 40.59036 -1.79138 30157 ft 476 kts 250°
2026-04-27 08:13 40.56713 -1.87248 30153 ft 476 kts 249°
2026-04-27 08:14 40.54372 -1.95397 30148 ft 476 kts 249°
2026-04-27 08:14 40.52027 -2.03534 30152 ft 475 kts 249°
2026-04-27 08:15 40.49677 -2.11663 30148 ft 475 kts 249°
2026-04-27 08:15 40.47338 -2.19742 30148 ft 475 kts 249°
2026-04-27 08:16 40.44979 -2.27870 30142 ft 476 kts 249°
2026-04-27 08:16 40.42615 -2.35990 30143 ft 476 kts 249°
2026-04-27 08:17 40.40244 -2.44108 30145 ft 477 kts 249°
2026-04-27 08:17 40.37863 -2.52239 30141 ft 477 kts 249°
2026-04-27 08:18 40.35797 -2.60446 30136 ft 477 kts 254°
2026-04-27 08:18 40.34036 -2.68848 30138 ft 477 kts 255°
2026-04-27 08:19 40.32253 -2.77243 30143 ft 478 kts 254°
2026-04-27 08:19 40.30427 -2.85617 30141 ft 478 kts 254°
2026-04-27 08:20 40.28584 -2.93991 30142 ft 479 kts 254°
2026-04-27 08:20 40.26736 -3.02373 30143 ft 478 kts 254°
2026-04-27 08:21 40.24893 -3.10690 30146 ft 478 kts 254°
2026-04-27 08:21 40.23348 -3.17642 30141 ft 478 kts 254°
2026-04-27 08:22 40.21487 -3.26001 30145 ft 477 kts 254°
2026-04-27 08:22 40.19331 -3.35706 30146 ft 477 kts 254°
2026-04-27 08:23 40.17773 -3.42702 30151 ft 477 kts 254°
2026-04-27 08:23 40.15922 -3.50978 30153 ft 476 kts 253°
2026-04-27 08:24 40.14061 -3.59268 30149 ft 475 kts 253°
2026-04-27 08:24 40.12195 -3.67554 30151 ft 474 kts 253°
2026-04-27 08:25 40.10323 -3.75817 30141 ft 474 kts 253°
2026-04-27 08:25 40.08429 -3.84062 30142 ft 473 kts 253°
2026-04-27 08:26 40.06531 -3.92293 30135 ft 473 kts 253°
2026-04-27 08:26 40.04642 -4.00468 30136 ft 472 kts 253°
2026-04-27 08:27 40.02738 -4.08683 30140 ft 472 kts 253°
2026-04-27 08:27 40.00829 -4.16890 30136 ft 472 kts 253°
2026-04-27 08:28 39.98927 -4.25040 30133 ft 472 kts 253°
2026-04-27 08:28 39.97007 -4.33243 30133 ft 472 kts 252°
2026-04-27 08:29 39.95263 -4.41508 30133 ft 472 kts 255°
2026-04-27 08:29 39.93664 -4.49819 30122 ft 473 kts 255°
2026-04-27 08:30 39.92015 -4.58053 30124 ft 473 kts 255°
2026-04-27 08:30 39.90321 -4.66345 30122 ft 472 kts 255°
2026-04-27 08:31 39.88624 -4.74605 30116 ft 472 kts 255°
2026-04-27 08:31 39.86924 -4.82857 30118 ft 471 kts 255°
2026-04-27 08:32 39.85234 -4.91045 30109 ft 471 kts 254°
2026-04-27 08:32 39.83526 -4.99280 30115 ft 471 kts 255°
2026-04-27 08:33 39.81813 -5.07512 30104 ft 470 kts 255°
2026-04-27 08:33 39.80097 -5.15726 30103 ft 470 kts 254°
2026-04-27 08:34 39.78390 -5.23867 30101 ft 470 kts 254°
2026-04-27 08:34 39.76666 -5.32062 30101 ft 470 kts 254°
2026-04-27 08:35 39.74929 -5.40260 30096 ft 470 kts 254°
2026-04-27 08:35 39.73186 -5.48447 30089 ft 469 kts 254°
2026-04-27 08:36 39.71442 -5.56618 30090 ft 469 kts 254°
2026-04-27 08:36 39.69700 -5.64752 30081 ft 469 kts 254°
2026-04-27 08:37 39.67947 -5.72909 30093 ft 469 kts 254°
2026-04-27 08:37 39.66187 -5.81066 30077 ft 469 kts 254°
2026-04-27 08:38 39.64421 -5.89219 30072 ft 468 kts 254°
2026-04-27 08:38 39.62666 -5.97292 30072 ft 468 kts 254°
2026-04-27 08:39 39.60895 -6.05411 30073 ft 467 kts 254°
2026-04-27 08:39 39.59118 -6.13527 30069 ft 468 kts 253°
2026-04-27 08:40 39.57332 -6.21656 30069 ft 468 kts 253°
2026-04-27 08:40 39.55553 -6.29719 30069 ft 468 kts 253°
2026-04-27 08:41 39.53757 -6.37838 30067 ft 468 kts 253°
2026-04-27 08:41 39.51679 -6.45835 30054 ft 468 kts 245°
2026-04-27 08:42 39.48763 -6.53380 30069 ft 468 kts 243°
2026-04-27 08:42 39.45821 -6.60928 30058 ft 469 kts 243°
2026-04-27 08:43 39.42900 -6.68486 30059 ft 469 kts 243°
2026-04-27 08:43 39.39999 -6.76010 30058 ft 469 kts 243°
2026-04-27 08:44 39.37078 -6.83570 30046 ft 469 kts 243°
2026-04-27 08:44 39.34156 -6.91107 30057 ft 469 kts 243°
2026-04-27 08:45 39.31242 -6.98604 30050 ft 469 kts 243°
2026-04-27 08:45 39.28307 -7.06135 30053 ft 469 kts 243°
2026-04-27 08:46 39.25365 -7.13668 30052 ft 469 kts 243°
2026-04-27 08:46 39.22420 -7.21190 30051 ft 469 kts 243°
2026-04-27 08:47 39.19471 -7.28702 30050 ft 469 kts 243°
2026-04-27 08:47 39.16520 -7.36204 30047 ft 469 kts 243°
2026-04-27 08:48 39.13580 -7.43659 30048 ft 469 kts 243°
2026-04-27 08:48 39.10620 -7.51147 30036 ft 469 kts 242°
2026-04-27 08:49 39.07652 -7.58636 30042 ft 468 kts 242°
2026-04-27 08:49 39.04684 -7.66114 30041 ft 469 kts 242°
2026-04-27 08:50 39.01730 -7.73539 30040 ft 469 kts 242°
2026-04-27 08:50 38.98751 -7.81013 30043 ft 469 kts 242°
2026-04-27 08:51 38.95762 -7.88495 30040 ft 469 kts 242°
2026-04-27 08:51 38.92770 -7.95953 30042 ft 470 kts 242°
2026-04-27 08:52 38.89784 -8.03362 30042 ft 470 kts 242°
2026-04-27 08:52 38.86770 -8.10825 30041 ft 470 kts 242°
2026-04-27 08:53 38.83758 -8.18268 30040 ft 470 kts 242°
2026-04-27 08:53 38.80760 -8.25663 30039 ft 470 kts 242°
2026-04-27 08:54 38.77735 -8.33102 30042 ft 470 kts 242°
2026-04-27 08:54 38.74705 -8.40540 30046 ft 471 kts 242°
2026-04-27 08:55 38.71666 -8.47980 30043 ft 471 kts 242°
2026-04-27 08:55 38.68622 -8.55418 30043 ft 471 kts 242°
2026-04-27 08:56 38.65597 -8.62791 30042 ft 471 kts 241°
2026-04-27 08:56 38.62536 -8.70210 30043 ft 471 kts 241°
2026-04-27 08:57 38.57937 -8.81320 30043 ft 471 kts 241°
2026-04-27 08:58 38.54865 -8.88725 30043 ft 472 kts 241°
2026-04-27 08:58 38.51796 -8.96106 30052 ft 474 kts 241°
2026-04-27 08:59 38.48693 -9.03548 30042 ft 475 kts 241°
2026-04-27 08:59 38.45582 -9.11000 30047 ft 476 kts 241°
2026-04-27 09:00 38.42596 -9.18544 30040 ft 476 kts 246°
2026-04-27 09:00 38.40588 -9.26586 30047 ft 476 kts 254°
2026-04-27 09:01 38.38878 -9.34700 30044 ft 476 kts 253°
2026-04-27 09:01 38.37128 -9.42837 30039 ft 476 kts 253°
2026-04-27 09:02 38.35353 -9.50975 30046 ft 475 kts 253°
2026-04-27 09:02 38.33584 -9.59030 30041 ft 475 kts 253°
2026-04-27 09:03 38.31799 -9.67124 30044 ft 474 kts 253°
2026-04-27 09:03 38.30009 -9.75220 30045 ft 474 kts 253°
2026-04-27 09:04 38.28216 -9.83300 30043 ft 474 kts 253°
2026-04-27 09:04 38.26414 -9.91395 30042 ft 474 kts 252°
2026-04-27 09:05 38.24620 -9.99422 30053 ft 474 kts 252°
2026-04-27 09:05 38.22806 -10.07512 30052 ft 474 kts 252°
2026-04-27 09:06 38.20990 -10.15578 30040 ft 475 kts 252°
2026-04-27 09:06 38.19174 -10.23618 30062 ft 476 kts 252°
2026-04-27 09:07 38.17335 -10.31733 30059 ft 478 kts 252°
2026-04-27 09:07 38.15488 -10.39857 30054 ft 478 kts 252°
2026-04-27 09:08 38.13635 -10.47974 30066 ft 478 kts 252°
2026-04-27 09:08 38.11779 -10.56072 30066 ft 477 kts 251°
2026-04-27 09:09 38.09935 -10.64098 30042 ft 476 kts 252°
2026-04-27 09:09 38.08070 -10.72185 30070 ft 475 kts 251°
2026-04-27 09:10 38.06205 -10.80239 30066 ft 475 kts 251°
2026-04-27 09:10 38.04347 -10.88239 30070 ft 476 kts 252°
2026-04-27 09:11 38.02470 -10.96293 30078 ft 476 kts 251°
2026-04-27 09:11 38.00584 -11.04355 30078 ft 476 kts 251°
2026-04-27 09:12 37.99014 -11.11049 30064 ft 476 kts 252°
2026-04-27 09:12 37.96809 -11.20413 30063 ft 476 kts 251°
2026-04-27 09:13 37.95231 -11.27091 30087 ft 475 kts 250°
2026-04-27 09:13 37.93328 -11.35120 30071 ft 476 kts 251°
2026-04-27 09:14 37.91419 -11.43156 30070 ft 476 kts 251°
2026-04-27 09:14 37.89503 -11.51189 30093 ft 476 kts 250°
2026-04-27 09:15 37.87591 -11.59173 30072 ft 476 kts 250°
2026-04-27 09:15 37.85651 -11.67246 30072 ft 476 kts 251°
2026-04-27 09:16 37.83732 -11.75219 30094 ft 476 kts 250°
2026-04-27 09:16 37.81795 -11.83235 30082 ft 476 kts 250°
2026-04-27 09:17 37.79852 -11.91249 30080 ft 476 kts 251°
2026-04-27 09:17 37.77901 -11.99265 30084 ft 476 kts 250°
2026-04-27 09:18 37.75946 -12.07267 30112 ft 476 kts 250°
2026-04-27 09:18 37.73999 -12.15213 30085 ft 477 kts 250°
2026-04-27 09:19 37.72030 -12.23222 30095 ft 476 kts 250°
2026-04-27 09:19 37.70062 -12.31206 30098 ft 476 kts 250°
2026-04-27 09:20 37.68087 -12.39188 30094 ft 476 kts 250°
2026-04-27 09:20 37.66108 -12.47161 30098 ft 475 kts 250°
2026-04-27 09:21 37.64136 -12.55085 30107 ft 474 kts 250°
2026-04-27 09:21 37.62154 -12.63021 30105 ft 474 kts 251°
2026-04-27 09:22 37.60174 -12.70914 30103 ft 474 kts 250°
2026-04-27 09:22 37.58183 -12.78835 30122 ft 474 kts 250°
2026-04-27 09:23 37.56180 -12.86776 30109 ft 475 kts 250°
2026-04-27 09:23 37.54174 -12.94705 30108 ft 475 kts 251°
2026-04-27 09:24 37.52164 -13.02631 30115 ft 475 kts 250°
2026-04-27 09:24 37.50147 -13.10552 30124 ft 475 kts 250°
2026-04-27 09:25 37.48124 -13.18469 30117 ft 475 kts 250°
2026-04-27 09:25 37.46095 -13.26386 30119 ft 474 kts 250°
2026-04-27 09:26 37.44077 -13.34240 30120 ft 474 kts 250°
2026-04-27 09:26 37.42035 -13.42154 30119 ft 475 kts 251°
2026-04-27 09:27 37.39990 -13.50053 30130 ft 475 kts 250°
2026-04-27 09:27 37.37935 -13.57979 30133 ft 477 kts 250°
2026-04-27 09:28 37.35867 -13.65928 30128 ft 478 kts 249°
2026-04-27 09:28 37.33803 -13.73831 30129 ft 478 kts 249°
2026-04-27 09:29 37.31723 -13.81774 30133 ft 478 kts 249°
2026-04-27 09:29 37.29644 -13.89701 30140 ft 477 kts 249°
2026-04-27 09:30 37.27568 -13.97579 30135 ft 477 kts 251°
2026-04-27 09:30 37.25476 -14.05483 30129 ft 477 kts 250°
2026-04-27 09:31 37.23377 -14.13404 30147 ft 477 kts 249°
2026-04-27 09:31 37.21283 -14.21277 30139 ft 478 kts 249°
2026-04-27 09:32 37.19166 -14.29211 30139 ft 479 kts 250°
2026-04-27 09:32 37.17045 -14.37140 30145 ft 479 kts 250°
2026-04-27 09:33 37.14927 -14.45031 30146 ft 480 kts 250°
2026-04-27 09:33 37.12787 -14.52977 30150 ft 480 kts 250°
2026-04-27 09:34 37.10661 -14.60855 30145 ft 480 kts 250°
2026-04-27 09:34 37.08518 -14.68770 30155 ft 479 kts 249°
2026-04-27 09:35 37.06370 -14.76679 30151 ft 480 kts 250°
2026-04-27 09:35 37.04214 -14.84593 30154 ft 480 kts 250°
2026-04-27 09:36 37.02054 -14.92501 30155 ft 480 kts 250°
2026-04-27 09:36 36.99883 -15.00338 30159 ft 479 kts 248°
2026-04-27 09:37 36.97138 -15.07941 30161 ft 479 kts 244°
2026-04-27 09:37 36.94293 -15.15471 30156 ft 479 kts 244°
2026-04-27 09:38 36.91464 -15.23006 30157 ft 479 kts 244°
2026-04-27 09:38 36.88664 -15.30504 30161 ft 479 kts 244°
2026-04-27 09:39 36.85849 -15.38047 30165 ft 479 kts 244°
2026-04-27 09:39 36.83029 -15.45582 30162 ft 479 kts 244°
2026-04-27 09:40 36.80202 -15.53113 30165 ft 479 kts 244°
2026-04-27 09:40 36.77370 -15.60641 30165 ft 479 kts 244°
2026-04-27 09:41 36.74536 -15.68154 30162 ft 479 kts 244°
2026-04-27 09:41 36.71690 -15.75683 30172 ft 480 kts 244°
2026-04-27 09:42 36.68836 -15.83215 30171 ft 481 kts 244°
2026-04-27 09:42 36.65987 -15.90713 30173 ft 482 kts 244°
2026-04-27 09:43 36.63112 -15.98263 30171 ft 482 kts 244°
2026-04-27 09:43 36.60233 -16.05806 30172 ft 482 kts 245°
2026-04-27 09:44 36.57350 -16.13340 30177 ft 481 kts 244°
2026-04-27 09:44 36.54482 -16.20819 30179 ft 481 kts 244°
2026-04-27 09:45 36.51594 -16.28330 30178 ft 481 kts 244°
2026-04-27 09:45 36.48702 -16.35834 30185 ft 481 kts 244°
2026-04-27 09:46 36.45808 -16.43326 30182 ft 480 kts 245°
2026-04-27 09:46 36.42916 -16.50797 30181 ft 480 kts 244°
2026-04-27 09:47 36.40039 -16.58209 30180 ft 479 kts 244°
2026-04-27 09:47 36.37138 -16.65665 30183 ft 479 kts 244°
2026-04-27 09:48 36.34229 -16.73124 30179 ft 479 kts 245°
2026-04-27 09:48 36.31340 -16.80518 30190 ft 479 kts 245°
2026-04-27 09:49 36.28426 -16.87957 30185 ft 480 kts 245°
2026-04-27 09:49 36.25506 -16.95395 30186 ft 480 kts 244°
2026-04-27 09:50 36.22582 -17.02823 30188 ft 480 kts 244°
2026-04-27 09:50 36.19653 -17.10247 30192 ft 479 kts 245°
2026-04-27 09:51 36.16720 -17.17666 30190 ft 479 kts 245°
2026-04-27 09:51 36.13785 -17.25073 30191 ft 479 kts 244°
2026-04-27 09:52 36.10843 -17.32479 30194 ft 479 kts 244°
2026-04-27 09:52 36.07915 -17.39834 30191 ft 479 kts 244°
2026-04-27 09:53 36.04960 -17.47239 30194 ft 479 kts 245°
2026-04-27 09:53 36.02008 -17.54620 30192 ft 479 kts 244°
2026-04-27 09:54 35.99051 -17.61997 30194 ft 479 kts 244°
2026-04-27 09:54 35.96103 -17.69332 30195 ft 479 kts 244°
2026-04-27 09:55 35.93138 -17.76695 30199 ft 479 kts 244°
2026-04-27 09:55 35.88684 -17.87725 30199 ft 478 kts 245°
2026-04-27 09:56 35.85712 -17.95063 30196 ft 478 kts 244°
2026-04-27 09:56 35.82734 -18.02401 30203 ft 478 kts 244°
2026-04-27 09:57 35.79750 -18.09737 30198 ft 479 kts 244°
2026-04-27 09:57 35.76777 -18.17031 30200 ft 479 kts 244°
2026-04-27 09:58 35.73781 -18.24362 30199 ft 479 kts 244°
2026-04-27 09:58 35.70774 -18.31702 30203 ft 479 kts 244°
2026-04-27 09:59 35.67767 -18.39029 30204 ft 479 kts 244°
2026-04-27 09:59 35.65267 -18.45109 30194 ft 479 kts 244°
2026-04-27 10:00 35.61763 -18.53610 30197 ft 479 kts 245°
2026-04-27 10:00 35.59253 -18.59687 30208 ft 479 kts 244°
2026-04-27 10:01 35.56224 -18.67001 30203 ft 480 kts 244°
2026-04-27 10:01 35.53191 -18.74313 30201 ft 480 kts 244°
2026-04-27 10:02 35.50151 -18.81626 30201 ft 480 kts 244°
2026-04-27 10:02 35.47109 -18.88927 30213 ft 480 kts 244°
2026-04-27 10:03 35.44086 -18.96164 30205 ft 479 kts 244°
2026-04-27 10:03 35.41049 -19.03418 30207 ft 477 kts 244°
2026-04-27 10:04 35.38015 -19.10655 30205 ft 477 kts 243°
2026-04-27 10:04 35.34981 -19.17872 30209 ft 476 kts 244°
2026-04-27 10:05 35.31943 -19.25084 30209 ft 476 kts 244°
2026-04-27 10:05 35.28893 -19.32309 30211 ft 477 kts 244°
2026-04-27 10:06 35.25857 -19.39484 30213 ft 477 kts 244°
2026-04-27 10:06 35.22791 -19.46717 30203 ft 478 kts 244°
2026-04-27 10:07 35.19741 -19.53895 30224 ft 479 kts 244°
2026-04-27 10:07 35.16658 -19.61137 30218 ft 481 kts 244°
2026-04-27 10:08 35.13564 -19.68386 30212 ft 482 kts 244°
2026-04-27 10:08 35.10459 -19.75648 30205 ft 482 kts 244°
2026-04-27 10:09 35.07348 -19.82906 30194 ft 482 kts 245°
2026-04-27 10:09 35.04236 -19.90155 30217 ft 482 kts 245°
2026-04-27 10:10 35.01143 -19.97346 30214 ft 482 kts 245°
2026-04-27 10:10 34.98204 -20.04669 30216 ft 480 kts 248°
2026-04-27 10:11 34.95456 -20.12112 30210 ft 480 kts 248°
2026-04-27 10:11 34.92720 -20.19537 30205 ft 480 kts 249°
2026-04-27 10:12 34.89961 -20.26961 30216 ft 481 kts 249°
2026-04-27 10:12 34.87189 -20.34375 30220 ft 481 kts 249°
2026-04-27 10:13 34.84422 -20.41750 30220 ft 482 kts 249°
2026-04-27 10:13 34.81630 -20.49175 30204 ft 482 kts 250°
2026-04-27 10:14 34.78842 -20.56572 30213 ft 480 kts 250°
2026-04-27 10:14 34.76053 -20.63961 30221 ft 479 kts 250°
2026-04-27 10:15 34.73267 -20.71321 30217 ft 479 kts 250°
2026-04-27 10:15 34.70480 -20.78671 30221 ft 478 kts 250°
2026-04-27 10:16 34.67692 -20.86004 30218 ft 477 kts 250°
2026-04-27 10:16 34.64918 -20.93284 30217 ft 477 kts 250°
2026-04-27 10:17 34.62140 -21.00561 30224 ft 476 kts 250°
2026-04-27 10:17 34.59349 -21.07854 30222 ft 476 kts 250°
2026-04-27 10:18 34.56547 -21.15160 30204 ft 476 kts 250°
2026-04-27 10:18 34.53751 -21.22432 30220 ft 475 kts 250°
2026-04-27 10:19 34.50950 -21.29702 30227 ft 475 kts 250°
2026-04-27 10:19 34.48164 -21.36918 30226 ft 475 kts 250°
2026-04-27 10:20 34.45355 -21.44179 30225 ft 475 kts 249°
2026-04-27 10:20 34.42539 -21.51441 30220 ft 475 kts 249°
2026-04-27 10:21 34.39727 -21.58674 30227 ft 475 kts 249°
2026-04-27 10:21 34.36907 -21.65915 30222 ft 475 kts 249°
2026-04-27 10:22 34.34085 -21.73144 30227 ft 475 kts 249°
2026-04-27 10:22 34.31268 -21.80345 30234 ft 475 kts 249°
2026-04-27 10:23 34.28436 -21.87567 30221 ft 475 kts 249°
2026-04-27 10:23 34.25604 -21.94774 30227 ft 475 kts 249°
2026-04-27 10:24 34.22768 -22.01977 30224 ft 474 kts 249°
2026-04-27 10:24 34.19924 -22.09185 30225 ft 474 kts 249°
2026-04-27 10:25 34.17093 -22.16342 30218 ft 474 kts 249°
2026-04-27 10:25 34.14247 -22.23523 30223 ft 474 kts 249°
2026-04-27 10:26 34.11394 -22.30709 30227 ft 474 kts 249°
2026-04-27 10:26 34.08537 -22.37886 30229 ft 474 kts 249°
2026-04-27 10:27 34.05677 -22.45057 30225 ft 474 kts 249°
2026-04-27 10:27 34.02827 -22.52186 30219 ft 473 kts 249°
2026-04-27 10:28 33.99967 -22.59325 30224 ft 473 kts 249°
2026-04-27 10:28 33.97104 -22.66457 30222 ft 472 kts 249°
2026-04-27 10:29 33.94234 -22.73592 30227 ft 472 kts 249°
2026-04-27 10:29 33.91367 -22.80705 30218 ft 472 kts 248°
2026-04-27 10:30 33.88498 -22.87808 30218 ft 472 kts 248°
2026-04-27 10:30 33.85638 -22.94874 30235 ft 471 kts 248°
2026-04-27 10:31 33.82759 -23.01970 30238 ft 471 kts 248°
2026-04-27 10:31 33.79873 -23.09072 30234 ft 471 kts 248°
2026-04-27 10:32 33.77006 -23.16110 30236 ft 470 kts 248°
2026-04-27 10:32 33.74126 -23.23165 30232 ft 469 kts 248°
2026-04-27 10:33 33.71250 -23.30196 30234 ft 469 kts 248°
2026-04-27 10:33 33.68370 -23.37223 30233 ft 468 kts 248°
2026-04-27 10:34 33.65490 -23.44238 30219 ft 468 kts 248°
2026-04-27 10:34 33.62611 -23.51233 30231 ft 468 kts 247°
2026-04-27 10:35 33.59740 -23.58196 30234 ft 468 kts 247°
2026-04-27 10:35 33.56849 -23.65192 30235 ft 468 kts 247°
2026-04-27 10:36 33.53949 -23.72196 30234 ft 468 kts 247°
2026-04-27 10:36 33.51062 -23.79157 30226 ft 470 kts 246°
2026-04-27 10:37 33.48144 -23.86177 30237 ft 472 kts 246°
2026-04-27 10:37 33.45204 -23.93234 30238 ft 474 kts 246°
2026-04-27 10:38 33.42245 -24.00323 30234 ft 476 kts 246°
2026-04-27 10:38 33.39279 -24.07412 30222 ft 476 kts 246°
2026-04-27 10:39 33.36309 -24.14499 30239 ft 476 kts 246°
2026-04-27 10:39 33.33354 -24.21535 30236 ft 476 kts 246°
2026-04-27 10:40 33.30374 -24.28614 30236 ft 476 kts 246°
2026-04-27 10:40 33.27390 -24.35693 30237 ft 476 kts 246°
2026-04-27 10:41 33.24402 -24.42762 30225 ft 475 kts 247°
2026-04-27 10:41 33.21443 -24.49750 30232 ft 473 kts 247°
2026-04-27 10:42 33.18475 -24.56749 30232 ft 471 kts 247°
2026-04-27 10:42 33.15505 -24.63735 30233 ft 470 kts 247°
2026-04-27 10:43 33.12543 -24.70693 30224 ft 470 kts 247°
2026-04-27 10:43 33.09578 -24.77640 30228 ft 470 kts 247°
2026-04-27 10:44 33.06623 -24.84553 30232 ft 471 kts 246°
2026-04-27 10:44 33.03640 -24.91519 30232 ft 472 kts 246°
2026-04-27 10:45 33.00648 -24.98488 30229 ft 473 kts 246°
2026-04-27 10:45 32.97167 -25.05203 30227 ft 477 kts 239°
2026-04-27 10:46 32.93445 -25.11718 30231 ft 479 kts 239°
2026-04-27 10:46 32.89689 -25.18313 30233 ft 481 kts 239°
2026-04-27 10:47 32.85937 -25.24936 30236 ft 482 kts 239°
2026-04-27 10:47 32.82821 -25.30445 30228 ft 482 kts 239°
2026-04-27 10:48 32.78470 -25.38124 30220 ft 479 kts 239°
2026-04-27 10:48 32.75372 -25.43579 30234 ft 476 kts 239°
2026-04-27 10:49 32.71673 -25.50084 30234 ft 473 kts 239°
2026-04-27 10:49 32.67986 -25.56557 30238 ft 472 kts 239°
2026-04-27 10:50 32.64304 -25.63012 30233 ft 472 kts 239°
2026-04-27 10:50 32.60612 -25.69471 30228 ft 473 kts 239°
2026-04-27 10:51 32.56941 -25.75882 30230 ft 474 kts 239°
2026-04-27 10:51 32.53228 -25.82357 30227 ft 474 kts 239°
2026-04-27 10:52 32.49505 -25.88836 30213 ft 475 kts 239°
2026-04-27 10:52 32.45803 -25.95267 30215 ft 475 kts 238°
2026-04-27 10:53 32.40232 -26.04924 30222 ft 471 kts 238°
2026-04-27 10:54 32.36540 -26.11311 30217 ft 468 kts 238°
2026-04-27 10:54 32.32867 -26.17654 30211 ft 466 kts 238°
2026-04-27 10:55 32.29206 -26.23966 30216 ft 464 kts 238°
2026-04-27 10:55 32.25552 -26.30257 30211 ft 463 kts 238°
2026-04-27 10:56 32.21923 -26.36495 30225 ft 463 kts 238°
2026-04-27 10:56 32.18264 -26.42775 30221 ft 464 kts 238°
2026-04-27 10:57 32.14593 -26.49061 30219 ft 465 kts 238°
2026-04-27 10:57 32.10907 -26.55366 30220 ft 466 kts 238°
2026-04-27 10:58 32.07222 -26.61656 30221 ft 466 kts 238°
2026-04-27 10:58 32.03552 -26.67912 30216 ft 466 kts 238°
2026-04-27 10:59 31.99864 -26.74186 30212 ft 465 kts 238°
2026-04-27 10:59 31.96176 -26.80451 30213 ft 464 kts 238°
2026-04-27 11:00 31.90680 -26.89769 30218 ft 462 kts 238°
2026-04-27 11:00 31.87010 -26.95978 30220 ft 462 kts 238°
2026-04-27 11:01 31.83342 -27.02176 30215 ft 461 kts 238°
2026-04-27 11:01 31.79674 -27.08361 30215 ft 461 kts 238°
2026-04-27 11:02 31.75997 -27.14554 30213 ft 461 kts 238°
2026-04-27 11:02 31.72344 -27.20694 30210 ft 461 kts 238°
2026-04-27 11:03 31.68654 -27.26888 30213 ft 462 kts 238°
2026-04-27 11:03 31.64961 -27.33076 30213 ft 463 kts 238°
2026-04-27 11:04 31.61260 -27.39268 30198 ft 463 kts 238°
2026-04-27 11:04 31.57577 -27.45420 30214 ft 464 kts 238°
2026-04-27 11:05 31.53862 -27.51616 30214 ft 464 kts 238°
2026-04-27 11:05 31.50140 -27.57814 30211 ft 464 kts 238°
2026-04-27 11:06 31.46416 -27.64004 30213 ft 464 kts 238°
2026-04-27 11:06 31.42694 -27.70180 30212 ft 464 kts 238°
2026-04-27 11:07 31.38967 -27.76357 30209 ft 464 kts 238°
2026-04-27 11:07 31.35271 -27.82471 30214 ft 462 kts 238°
2026-04-27 11:08 31.31566 -27.88590 30205 ft 460 kts 238°
2026-04-27 11:08 31.27871 -27.94684 30208 ft 458 kts 238°
2026-04-27 11:09 31.24191 -28.00745 30209 ft 457 kts 238°
2026-04-27 11:09 31.20519 -28.06784 30201 ft 457 kts 237°
2026-04-27 11:10 31.16829 -28.12842 30206 ft 457 kts 237°
2026-04-27 11:10 31.13132 -28.18901 30211 ft 459 kts 237°
2026-04-27 11:11 31.09421 -28.24975 30215 ft 460 kts 237°
2026-04-27 11:11 31.05722 -28.31019 30207 ft 461 kts 237°
2026-04-27 11:12 31.01983 -28.37120 30213 ft 461 kts 237°
2026-04-27 11:12 30.98268 -28.43171 30210 ft 461 kts 237°
2026-04-27 11:13 30.94535 -28.49243 30211 ft 461 kts 237°
2026-04-27 11:13 30.90793 -28.55319 30205 ft 460 kts 237°
2026-04-27 11:14 30.87075 -28.61348 30206 ft 460 kts 237°
2026-04-27 11:14 30.83336 -28.67402 30203 ft 460 kts 237°
2026-04-27 11:15 30.79600 -28.73440 30214 ft 459 kts 237°
2026-04-27 11:15 30.75873 -28.79456 30204 ft 458 kts 237°
2026-04-27 11:16 30.72149 -28.85458 30207 ft 457 kts 237°
2026-04-27 11:16 30.68455 -28.91403 30205 ft 456 kts 237°
2026-04-27 11:17 30.64730 -28.97388 30200 ft 456 kts 237°
2026-04-27 11:17 30.61009 -29.03357 30208 ft 456 kts 237°
2026-04-27 11:18 30.57291 -29.09313 30210 ft 456 kts 237°
2026-04-27 11:18 30.53564 -29.15276 30207 ft 456 kts 237°
2026-04-27 11:19 30.49837 -29.21228 30207 ft 456 kts 237°
2026-04-27 11:19 30.46128 -29.27143 30206 ft 456 kts 236°
2026-04-27 11:20 30.42389 -29.33096 30206 ft 456 kts 236°
2026-04-27 11:20 30.38645 -29.39051 30196 ft 457 kts 236°
2026-04-27 11:21 30.34895 -29.45006 30208 ft 458 kts 236°
2026-04-27 11:21 30.31160 -29.50927 30207 ft 459 kts 236°
2026-04-27 11:22 30.27383 -29.56907 30201 ft 460 kts 236°
2026-04-27 11:22 30.23598 -29.62889 30208 ft 461 kts 236°
2026-04-27 11:23 30.19799 -29.68886 30203 ft 462 kts 236°
2026-04-27 11:23 30.16023 -29.74837 30203 ft 462 kts 236°
2026-04-27 11:24 30.12221 -29.80820 30206 ft 461 kts 236°
2026-04-27 11:24 30.08419 -29.86796 30208 ft 460 kts 236°
2026-04-27 11:25 30.04655 -29.92703 30200 ft 458 kts 236°
2026-04-27 11:25 30.00878 -29.98622 30203 ft 457 kts 236°
2026-04-27 11:26 29.97310 -30.04667 30209 ft 455 kts 239°
2026-04-27 11:26 29.93859 -30.10799 30212 ft 454 kts 239°
2026-04-27 11:27 29.90420 -30.16901 30196 ft 454 kts 239°
2026-04-27 11:27 29.86967 -30.22999 30196 ft 454 kts 239°
2026-04-27 11:28 29.83503 -30.29094 30212 ft 455 kts 239°
2026-04-27 11:28 29.80053 -30.35153 30213 ft 455 kts 239°
2026-04-27 11:29 29.76570 -30.41263 30209 ft 455 kts 239°
2026-04-27 11:29 29.73090 -30.47357 30191 ft 455 kts 239°
2026-04-27 11:30 29.69612 -30.53439 30206 ft 454 kts 239°
2026-04-27 11:30 29.66136 -30.59509 30211 ft 454 kts 239°
2026-04-27 11:31 29.62680 -30.65535 30211 ft 454 kts 239°
2026-04-27 11:31 29.59196 -30.71601 30201 ft 453 kts 239°
2026-04-27 11:32 29.55725 -30.77636 30193 ft 452 kts 239°
2026-04-27 11:32 29.52273 -30.83628 30203 ft 451 kts 239°
2026-04-27 11:33 29.48802 -30.89645 30203 ft 451 kts 239°
2026-04-27 11:33 29.45340 -30.95637 30202 ft 451 kts 239°
2026-04-27 11:34 29.41870 -31.01634 30200 ft 450 kts 239°
2026-04-27 11:34 29.38402 -31.07620 30200 ft 450 kts 239°
2026-04-27 11:35 29.34955 -31.13560 30201 ft 450 kts 239°
2026-04-27 11:35 29.31483 -31.19536 30200 ft 450 kts 239°
2026-04-27 11:36 29.28000 -31.25522 30194 ft 450 kts 239°
2026-04-27 11:36 29.24541 -31.31456 30196 ft 450 kts 239°
2026-04-27 11:37 29.21060 -31.37421 30198 ft 450 kts 239°
2026-04-27 11:37 29.18142 -31.42415 30198 ft 451 kts 239°
2026-04-27 11:38 29.14651 -31.48379 30196 ft 451 kts 239°
2026-04-27 11:38 29.11179 -31.54305 30191 ft 450 kts 239°
2026-04-27 11:39 29.07693 -31.60242 30188 ft 449 kts 239°
2026-04-27 11:39 29.04211 -31.66170 30192 ft 448 kts 239°
2026-04-27 11:40 29.00725 -31.72094 30193 ft 448 kts 239°
2026-04-27 11:40 28.97240 -31.78008 30190 ft 448 kts 239°
2026-04-27 11:41 28.93779 -31.83871 30191 ft 447 kts 240°
2026-04-27 11:41 28.90299 -31.89759 30188 ft 447 kts 240°
2026-04-27 11:42 28.86824 -31.95631 30190 ft 446 kts 240°
2026-04-27 11:42 28.83345 -32.01500 30188 ft 446 kts 240°
2026-04-27 11:43 28.79868 -32.07359 30188 ft 446 kts 240°
2026-04-27 11:43 28.76390 -32.13211 30187 ft 445 kts 240°
2026-04-27 11:44 28.72936 -32.19016 30188 ft 445 kts 240°
2026-04-27 11:44 28.69454 -32.24859 30188 ft 445 kts 240°
2026-04-27 11:45 28.65968 -32.30699 30185 ft 445 kts 240°
2026-04-27 11:45 28.62476 -32.36542 30177 ft 445 kts 240°
2026-04-27 11:46 28.59008 -32.42337 30183 ft 445 kts 240°
2026-04-27 11:46 28.55512 -32.48172 30182 ft 446 kts 240°
2026-04-27 11:47 28.52010 -32.54008 30180 ft 446 kts 240°
2026-04-27 11:47 28.48500 -32.59848 30184 ft 446 kts 240°
2026-04-27 11:48 28.45013 -32.65644 30177 ft 447 kts 240°
2026-04-27 11:48 28.41497 -32.71478 30183 ft 447 kts 240°
2026-04-27 11:49 28.37979 -32.77308 30180 ft 448 kts 240°
2026-04-27 11:49 28.34453 -32.83144 30182 ft 448 kts 240°
2026-04-27 11:50 28.30919 -32.88985 30176 ft 448 kts 240°
2026-04-27 11:50 28.27387 -32.94814 30176 ft 448 kts 240°
2026-04-27 11:51 28.23876 -33.00600 30185 ft 448 kts 240°
2026-04-27 11:52 28.18562 -33.09345 30189 ft 449 kts 240°
2026-04-27 11:52 28.15013 -33.15176 30188 ft 450 kts 240°
2026-04-27 11:53 28.11449 -33.21021 30183 ft 451 kts 240°
2026-04-27 11:53 28.07871 -33.26884 30184 ft 451 kts 240°
2026-04-27 11:54 28.04321 -33.32692 30182 ft 452 kts 240°
2026-04-27 11:54 28.00739 -33.38542 30182 ft 451 kts 240°
2026-04-27 11:55 27.97158 -33.44384 30179 ft 451 kts 241°
2026-04-27 11:55 27.93585 -33.50204 30179 ft 449 kts 241°
2026-04-27 11:56 27.90050 -33.55957 30180 ft 447 kts 241°
2026-04-27 11:56 27.86498 -33.61729 30179 ft 446 kts 241°
2026-04-27 11:57 27.82952 -33.67485 30183 ft 446 kts 241°
2026-04-27 11:57 27.79401 -33.73239 30175 ft 446 kts 241°
2026-04-27 11:58 27.75877 -33.78944 30158 ft 446 kts 241°
2026-04-27 11:58 27.72313 -33.84706 30186 ft 447 kts 241°
2026-04-27 11:59 27.68740 -33.90476 30178 ft 449 kts 241°
2026-04-27 11:59 27.65177 -33.96219 30187 ft 450 kts 241°
2026-04-27 12:00 27.61578 -34.02013 30182 ft 450 kts 241°
2026-04-27 12:00 27.57979 -34.07799 30180 ft 450 kts 241°
2026-04-27 12:01 27.54402 -34.13543 30182 ft 450 kts 241°
2026-04-27 12:01 27.50804 -34.19312 30182 ft 449 kts 241°
2026-04-27 12:02 27.47208 -34.25072 30184 ft 449 kts 241°
2026-04-27 12:02 27.43609 -34.30828 30186 ft 449 kts 241°
2026-04-27 12:03 27.40003 -34.36589 30186 ft 449 kts 241°
2026-04-27 12:03 27.36417 -34.42311 30185 ft 450 kts 240°
2026-04-27 12:04 27.32808 -34.48061 30182 ft 450 kts 240°
2026-04-27 12:04 27.29194 -34.53810 30182 ft 450 kts 240°
2026-04-27 12:05 27.25576 -34.59560 30186 ft 451 kts 240°
2026-04-27 12:05 27.21971 -34.65283 30185 ft 452 kts 240°
2026-04-27 12:06 27.18333 -34.71048 30186 ft 452 kts 240°
2026-04-27 12:06 27.14694 -34.76809 30183 ft 452 kts 240°
2026-04-27 12:07 27.11045 -34.82578 30185 ft 452 kts 240°
2026-04-27 12:07 27.07422 -34.88299 30186 ft 452 kts 240°
2026-04-27 12:08 27.03771 -34.94059 30184 ft 452 kts 240°
2026-04-27 12:08 27.00114 -34.99800 30180 ft 452 kts 238°
2026-04-27 12:09 26.96093 -35.05217 30193 ft 455 kts 235°
2026-04-27 12:09 26.91969 -35.10609 30184 ft 455 kts 235°
2026-04-27 12:10 26.87847 -35.16014 30161 ft 455 kts 235°
2026-04-27 12:10 26.83731 -35.21425 30186 ft 456 kts 235°
2026-04-27 12:11 26.79626 -35.26819 30179 ft 458 kts 235°
2026-04-27 12:11 26.75481 -35.32259 30186 ft 460 kts 235°
2026-04-27 12:12 26.71314 -35.37720 30191 ft 461 kts 235°
2026-04-27 12:12 26.67160 -35.43157 30187 ft 462 kts 235°
2026-04-27 12:13 26.62974 -35.48627 30180 ft 462 kts 234°
2026-04-27 12:13 26.58794 -35.54083 30178 ft 461 kts 234°
2026-04-27 12:14 26.54644 -35.59495 30187 ft 460 kts 235°
2026-04-27 12:14 26.50477 -35.64922 30185 ft 460 kts 234°
2026-04-27 12:15 26.46311 -35.70342 30171 ft 459 kts 235°
2026-04-27 12:15 26.42146 -35.75753 30178 ft 458 kts 235°
2026-04-27 12:16 26.38024 -35.81101 30178 ft 457 kts 235°
2026-04-27 12:16 26.33882 -35.86470 30200 ft 455 kts 235°
2026-04-27 12:17 26.29741 -35.91831 30188 ft 455 kts 235°
2026-04-27 12:17 26.25613 -35.97170 30186 ft 454 kts 235°
2026-04-27 12:18 26.21510 -36.02469 30197 ft 454 kts 236°
2026-04-27 12:18 26.17384 -36.07792 30192 ft 453 kts 236°
2026-04-27 12:19 26.13271 -36.13090 30183 ft 452 kts 236°
2026-04-27 12:19 26.09161 -36.18380 30198 ft 451 kts 236°
2026-04-27 12:20 26.05082 -36.23623 30184 ft 450 kts 236°
2026-04-27 12:20 26.00990 -36.28877 30186 ft 448 kts 236°
2026-04-27 12:21 25.96912 -36.34107 30189 ft 447 kts 236°
2026-04-27 12:21 25.92845 -36.39318 30187 ft 446 kts 236°
2026-04-27 12:22 25.88799 -36.44496 30190 ft 446 kts 236°
2026-04-27 12:22 25.84726 -36.49702 30197 ft 446 kts 236°
2026-04-27 12:23 25.80645 -36.54913 30188 ft 446 kts 236°
2026-04-27 12:23 25.76565 -36.60115 30197 ft 447 kts 236°
2026-04-27 12:24 25.72481 -36.65317 30199 ft 447 kts 236°
2026-04-27 12:24 25.68411 -36.70495 30190 ft 448 kts 236°
2026-04-27 12:25 25.64319 -36.75695 30178 ft 447 kts 236°
2026-04-27 12:25 25.60917 -36.80013 30188 ft 446 kts 236°
2026-04-27 12:26 25.56146 -36.86064 30198 ft 446 kts 236°
2026-04-27 12:26 25.52082 -36.91211 30197 ft 446 kts 236°
2026-04-27 12:27 25.48683 -36.95512 30196 ft 446 kts 236°
2026-04-27 12:27 25.44598 -37.00674 30192 ft 445 kts 236°
2026-04-27 12:28 25.40511 -37.05833 30195 ft 445 kts 236°
2026-04-27 12:28 25.36432 -37.10978 30196 ft 444 kts 236°
2026-04-27 12:29 25.32354 -37.16115 30196 ft 444 kts 236°
2026-04-27 12:29 25.28302 -37.21215 30198 ft 443 kts 236°
2026-04-27 12:30 25.24225 -37.26339 30196 ft 443 kts 236°
2026-04-27 12:30 25.20154 -37.31450 30200 ft 442 kts 236°
2026-04-27 12:31 25.16087 -37.36551 30196 ft 442 kts 236°
2026-04-27 12:31 25.12038 -37.41623 30196 ft 442 kts 236°
2026-04-27 12:32 25.07970 -37.46714 30196 ft 442 kts 236°
2026-04-27 12:32 25.03895 -37.51809 30196 ft 442 kts 236°
2026-04-27 12:33 24.99825 -37.56890 30203 ft 442 kts 236°
2026-04-27 12:33 24.95778 -37.61938 30198 ft 441 kts 236°
2026-04-27 12:34 24.91701 -37.67018 30199 ft 441 kts 236°
2026-04-27 12:34 24.87631 -37.72084 30201 ft 441 kts 236°
2026-04-27 12:35 24.83550 -37.77159 30201 ft 442 kts 236°
2026-04-27 12:35 24.79491 -37.82200 30203 ft 443 kts 236°
2026-04-27 12:36 24.75388 -37.87290 30205 ft 444 kts 236°
2026-04-27 12:36 24.71293 -37.92365 30212 ft 444 kts 236°
2026-04-27 12:37 24.67189 -37.97446 30199 ft 444 kts 235°
2026-04-27 12:37 24.63086 -38.02519 30208 ft 444 kts 235°
2026-04-27 12:38 24.58982 -38.07589 30203 ft 443 kts 235°
2026-04-27 12:38 24.54906 -38.12618 30205 ft 443 kts 235°
2026-04-27 12:39 24.50806 -38.17671 30182 ft 443 kts 235°
2026-04-27 12:39 24.46694 -38.22735 30196 ft 444 kts 235°
2026-04-27 12:40 24.42576 -38.27802 30212 ft 444 kts 235°
2026-04-27 12:40 24.38476 -38.32840 30210 ft 445 kts 235°
2026-04-27 12:41 24.34346 -38.37909 30203 ft 446 kts 235°
2026-04-27 12:41 24.30211 -38.42979 30206 ft 446 kts 235°
2026-04-27 12:42 24.26071 -38.48049 30205 ft 445 kts 235°
2026-04-27 12:42 24.21938 -38.53106 30216 ft 444 kts 235°
2026-04-27 12:43 24.17839 -38.58115 30214 ft 444 kts 235°
2026-04-27 12:43 24.13716 -38.63150 30208 ft 444 kts 235°
2026-04-27 12:44 24.09590 -38.68184 30209 ft 444 kts 235°
2026-04-27 12:44 24.05457 -38.73220 30213 ft 444 kts 235°
2026-04-27 12:45 24.01316 -38.78261 30212 ft 445 kts 235°
2026-04-27 12:45 23.97200 -38.83266 30213 ft 446 kts 235°
2026-04-27 12:46 23.93042 -38.88316 30205 ft 446 kts 235°
2026-04-27 12:46 23.88911 -38.93328 30210 ft 446 kts 235°
2026-04-27 12:47 23.84757 -38.98363 30216 ft 446 kts 235°
2026-04-27 12:47 23.80599 -39.03398 30211 ft 445 kts 235°
2026-04-27 12:48 23.76441 -39.08427 30208 ft 445 kts 235°
2026-04-27 12:48 23.72314 -39.13415 30187 ft 445 kts 234°
2026-04-27 12:49 23.68158 -39.18432 30215 ft 445 kts 234°
2026-04-27 12:49 23.63994 -39.23454 30216 ft 446 kts 234°
2026-04-27 12:50 23.59851 -39.28446 30212 ft 447 kts 234°
2026-04-27 12:50 23.55651 -39.33500 30216 ft 447 kts 234°
2026-04-27 12:51 23.51499 -39.38491 30217 ft 447 kts 234°
2026-04-27 12:51 23.47318 -39.43512 30217 ft 447 kts 234°
2026-04-27 12:52 23.43137 -39.48528 30218 ft 447 kts 234°
2026-04-27 12:52 23.38979 -39.53513 30218 ft 446 kts 234°
2026-04-27 12:53 23.32712 -39.61015 30198 ft 446 kts 234°
2026-04-27 12:53 23.28529 -39.66018 30220 ft 447 kts 234°
2026-04-27 12:54 23.24331 -39.71032 30221 ft 448 kts 234°
2026-04-27 12:54 23.20150 -39.76022 30221 ft 449 kts 234°
2026-04-27 12:55 23.15934 -39.81048 30207 ft 449 kts 234°
2026-04-27 12:55 23.11713 -39.86073 30218 ft 449 kts 234°
2026-04-27 12:56 23.07493 -39.91094 30220 ft 449 kts 234°
2026-04-27 12:56 23.03300 -39.96078 30220 ft 449 kts 234°
2026-04-27 12:57 22.99083 -40.01102 30220 ft 448 kts 234°
2026-04-27 12:57 22.95007 -40.06220 30204 ft 447 kts 236°
2026-04-27 12:58 22.91000 -40.11351 30221 ft 448 kts 236°
2026-04-27 12:58 22.86954 -40.16507 30222 ft 449 kts 235°
2026-04-27 12:59 22.82880 -40.21668 30218 ft 450 kts 235°
2026-04-27 12:59 22.78799 -40.26822 30208 ft 451 kts 235°
2026-04-27 13:00 22.74729 -40.31953 30232 ft 451 kts 235°
2026-04-27 13:00 22.70634 -40.37113 30222 ft 451 kts 235°
2026-04-27 13:01 22.66542 -40.42265 30215 ft 451 kts 235°
2026-04-27 13:01 22.62452 -40.47408 30222 ft 450 kts 235°
2026-04-27 13:02 22.58388 -40.52515 30220 ft 450 kts 235°
2026-04-27 13:02 22.54300 -40.57646 30217 ft 450 kts 234°
2026-04-27 13:03 22.50206 -40.62781 30222 ft 451 kts 234°
2026-04-27 13:03 22.46095 -40.67932 30224 ft 453 kts 234°
2026-04-27 13:04 22.41976 -40.73087 30217 ft 454 kts 234°
2026-04-27 13:04 22.37841 -40.78257 30213 ft 454 kts 234°
2026-04-27 13:05 22.33735 -40.83384 30209 ft 454 kts 234°
2026-04-27 13:05 22.29599 -40.88544 30217 ft 454 kts 234°
2026-04-27 13:06 22.25461 -40.93703 30215 ft 454 kts 234°
2026-04-27 13:06 22.21323 -40.98855 30216 ft 453 kts 234°
2026-04-27 13:07 22.17213 -41.03969 30221 ft 453 kts 234°
2026-04-27 13:07 22.13082 -41.09104 30206 ft 453 kts 234°
2026-04-27 13:08 22.08939 -41.14249 30217 ft 454 kts 234°
2026-04-27 13:08 22.04814 -41.19366 30219 ft 455 kts 234°
2026-04-27 13:09 22.00659 -41.24516 30216 ft 456 kts 234°
2026-04-27 13:09 21.96495 -41.29671 30216 ft 456 kts 234°
2026-04-27 13:10 21.92321 -41.34832 30216 ft 456 kts 234°
2026-04-27 13:10 21.88183 -41.39946 30218 ft 456 kts 233°
2026-04-27 13:11 21.84021 -41.45084 30208 ft 455 kts 233°
2026-04-27 13:11 21.79852 -41.50225 30207 ft 455 kts 233°
2026-04-27 13:12 21.75684 -41.55360 30215 ft 455 kts 233°
2026-04-27 13:12 21.71515 -41.60493 30206 ft 455 kts 233°
2026-04-27 13:13 21.67368 -41.65593 30211 ft 456 kts 233°
2026-04-27 13:13 21.63179 -41.70739 30209 ft 456 kts 233°
2026-04-27 13:14 21.58993 -41.75877 30213 ft 457 kts 233°
2026-04-27 13:14 21.55515 -41.80143 30206 ft 457 kts 233°
2026-04-27 13:15 21.51319 -41.85283 30213 ft 457 kts 233°
2026-04-27 13:15 21.47123 -41.90419 30212 ft 457 kts 233°
2026-04-27 13:16 21.42951 -41.95521 30213 ft 457 kts 233°
2026-04-27 13:16 21.38759 -42.00643 30210 ft 456 kts 233°
2026-04-27 13:17 21.34572 -42.05753 30209 ft 456 kts 233°
2026-04-27 13:17 21.30382 -42.10863 30208 ft 455 kts 233°
2026-04-27 13:18 21.26196 -42.15962 30210 ft 455 kts 233°
2026-04-27 13:18 21.22008 -42.21060 30203 ft 455 kts 233°
2026-04-27 13:19 21.17819 -42.26155 30207 ft 454 kts 233°
2026-04-27 13:19 21.13664 -42.31203 30207 ft 454 kts 233°
2026-04-27 13:20 21.09485 -42.36275 30206 ft 454 kts 233°
2026-04-27 13:20 21.05298 -42.41354 30206 ft 454 kts 233°
2026-04-27 13:21 21.01112 -42.46425 30208 ft 454 kts 233°
2026-04-27 13:21 20.96945 -42.51470 30188 ft 454 kts 233°
2026-04-27 13:22 20.92745 -42.56549 30204 ft 455 kts 233°
2026-04-27 13:22 20.88540 -42.61629 30205 ft 456 kts 232°
2026-04-27 13:23 20.84330 -42.66712 30207 ft 457 kts 232°
2026-04-27 13:23 20.80136 -42.71769 30207 ft 457 kts 232°
2026-04-27 13:24 20.75920 -42.76850 30203 ft 457 kts 232°
2026-04-27 13:24 20.71700 -42.81929 30204 ft 456 kts 232°
2026-04-27 13:25 20.67489 -42.86993 30217 ft 455 kts 232°
2026-04-27 13:25 20.63271 -42.92062 30198 ft 455 kts 232°
2026-04-27 13:26 20.59092 -42.97079 30196 ft 454 kts 232°
2026-04-27 13:26 20.54886 -43.02124 30210 ft 455 kts 232°
2026-04-27 13:27 20.50678 -43.07168 30202 ft 456 kts 232°
2026-04-27 13:27 20.46452 -43.12228 30202 ft 456 kts 232°
2026-04-27 13:28 20.42231 -43.17278 30202 ft 456 kts 232°
2026-04-27 13:28 20.38029 -43.22299 30205 ft 456 kts 232°
2026-04-27 13:29 20.33794 -43.27357 30205 ft 456 kts 232°
2026-04-27 13:29 20.29558 -43.32411 30189 ft 456 kts 232°
2026-04-27 13:30 20.25329 -43.37452 30204 ft 456 kts 232°
2026-04-27 13:30 20.21116 -43.42469 30199 ft 456 kts 232°
2026-04-27 13:31 20.16878 -43.47513 30192 ft 456 kts 231°
2026-04-27 13:31 20.12643 -43.52547 30199 ft 457 kts 231°
2026-04-27 13:32 20.08421 -43.57563 30195 ft 458 kts 231°
2026-04-27 13:32 20.04167 -43.62611 30196 ft 458 kts 231°
2026-04-27 13:33 19.99908 -43.67661 30196 ft 458 kts 231°
2026-04-27 13:33 19.95654 -43.72701 30197 ft 457 kts 231°
2026-04-27 13:34 19.91425 -43.77706 30194 ft 457 kts 231°
2026-04-27 13:34 19.87170 -43.82738 30193 ft 457 kts 231°
2026-04-27 13:35 19.82921 -43.87760 30194 ft 456 kts 231°
2026-04-27 13:35 19.78673 -43.92775 30187 ft 456 kts 231°
2026-04-27 13:36 19.74420 -43.97792 30192 ft 457 kts 231°
2026-04-27 13:36 19.70159 -44.02814 30192 ft 458 kts 231°
2026-04-27 13:37 19.65913 -44.07814 30192 ft 459 kts 231°
2026-04-27 13:37 19.61632 -44.12851 30191 ft 459 kts 231°
2026-04-27 13:38 19.57345 -44.17890 30189 ft 459 kts 231°
2026-04-27 13:38 19.53061 -44.22921 30186 ft 459 kts 231°
2026-04-27 13:39 19.48809 -44.27911 30191 ft 459 kts 231°
2026-04-27 13:39 19.44527 -44.32932 30187 ft 458 kts 231°
2026-04-27 13:40 19.40251 -44.37942 30184 ft 458 kts 231°
2026-04-27 13:40 19.35963 -44.42961 30186 ft 459 kts 231°
2026-04-27 13:41 19.31677 -44.47973 30186 ft 459 kts 231°
2026-04-27 13:41 19.27419 -44.52949 30187 ft 459 kts 231°
2026-04-27 13:42 19.23126 -44.57962 30183 ft 459 kts 230°
2026-04-27 13:42 19.18826 -44.62979 30185 ft 460 kts 230°
2026-04-27 13:43 19.14527 -44.67990 30186 ft 460 kts 230°
2026-04-27 13:43 19.10243 -44.72979 30182 ft 460 kts 230°
2026-04-27 13:44 19.05939 -44.77988 30185 ft 460 kts 230°
2026-04-27 13:44 19.01627 -44.83001 30183 ft 460 kts 230°
2026-04-27 13:45 18.97316 -44.88010 30185 ft 460 kts 230°
2026-04-27 13:45 18.93001 -44.93019 30184 ft 461 kts 230°
2026-04-27 13:46 18.88710 -44.97995 30179 ft 461 kts 230°
2026-04-27 13:46 18.84389 -45.03003 30178 ft 461 kts 230°
2026-04-27 13:47 18.80053 -45.08023 30183 ft 461 kts 230°
2026-04-27 13:47 18.75726 -45.13030 30173 ft 461 kts 230°
2026-04-27 13:48 18.71420 -45.18008 30184 ft 462 kts 230°
2026-04-27 13:48 18.67085 -45.23015 30183 ft 462 kts 230°
2026-04-27 13:49 18.62749 -45.28019 30180 ft 462 kts 230°
2026-04-27 13:49 18.58406 -45.33029 30163 ft 462 kts 230°
2026-04-27 13:50 18.54067 -45.38028 30176 ft 463 kts 230°
2026-04-27 13:50 18.49719 -45.43034 30175 ft 463 kts 230°
2026-04-27 13:51 18.45389 -45.48015 30172 ft 463 kts 230°
2026-04-27 13:51 18.41021 -45.53036 30163 ft 463 kts 230°
2026-04-27 13:52 18.36662 -45.58042 30175 ft 464 kts 230°
2026-04-27 13:52 18.32296 -45.63053 30173 ft 464 kts 230°
2026-04-27 13:53 18.25770 -45.70536 30172 ft 464 kts 230°
2026-04-27 13:54 18.21389 -45.75554 30172 ft 465 kts 230°
2026-04-27 13:54 18.17017 -45.80557 30173 ft 464 kts 230°
2026-04-27 13:55 18.12641 -45.85561 30170 ft 464 kts 230°
2026-04-27 13:55 18.08293 -45.90531 30168 ft 463 kts 230°
2026-04-27 13:56 18.03934 -45.95510 30163 ft 463 kts 230°
2026-04-27 13:56 17.99585 -46.00507 30169 ft 462 kts 232°
2026-04-27 13:57 17.95508 -46.05735 30172 ft 462 kts 233°
2026-04-27 13:57 17.91500 -46.10962 30169 ft 463 kts 233°
2026-04-27 13:58 17.87449 -46.16228 30166 ft 463 kts 233°
2026-04-27 13:58 17.83381 -46.21493 30166 ft 464 kts 233°
2026-04-27 13:59 17.79338 -46.26712 30167 ft 464 kts 233°
2026-04-27 13:59 17.75257 -46.31976 30167 ft 464 kts 233°
2026-04-27 14:00 17.71178 -46.37234 30167 ft 465 kts 233°
2026-04-27 14:00 17.67102 -46.42483 30157 ft 464 kts 232°
2026-04-27 14:01 17.63009 -46.47752 30167 ft 464 kts 232°
2026-04-27 14:01 17.58951 -46.52970 30160 ft 464 kts 232°
2026-04-27 14:02 17.54867 -46.58218 30167 ft 464 kts 232°
2026-04-27 14:02 17.50787 -46.63455 30157 ft 464 kts 232°
2026-04-27 14:03 17.47367 -46.67844 30148 ft 464 kts 232°
2026-04-27 14:03 17.43306 -46.73051 30160 ft 464 kts 232°
2026-04-27 14:04 17.39212 -46.78295 30159 ft 465 kts 232°
2026-04-27 14:04 17.35116 -46.83539 30156 ft 465 kts 232°
2026-04-27 14:05 17.31010 -46.88791 30153 ft 466 kts 232°
2026-04-27 14:05 17.26907 -46.94035 30150 ft 466 kts 232°
2026-04-27 14:06 17.22820 -46.99255 30159 ft 467 kts 232°
2026-04-27 14:06 17.18700 -47.04512 30155 ft 467 kts 232°
2026-04-27 14:07 17.14573 -47.09775 30153 ft 467 kts 232°
2026-04-27 14:07 17.10453 -47.15024 30144 ft 467 kts 232°
2026-04-27 14:08 17.06330 -47.20274 30149 ft 467 kts 232°
2026-04-27 14:08 17.02207 -47.25519 30149 ft 467 kts 232°
2026-04-27 14:09 16.98109 -47.30729 30147 ft 467 kts 232°
2026-04-27 14:09 16.93979 -47.35975 30147 ft 467 kts 232°
2026-04-27 14:10 16.89851 -47.41214 30144 ft 467 kts 232°
2026-04-27 14:10 16.85718 -47.46457 30147 ft 467 kts 232°
2026-04-27 14:11 16.81586 -47.51693 30141 ft 467 kts 232°
2026-04-27 14:11 16.77466 -47.56910 30142 ft 467 kts 232°
2026-04-27 14:12 16.73330 -47.62144 30144 ft 468 kts 232°
2026-04-27 14:12 16.69145 -47.67439 30376 ft 481 kts 232°
2026-04-27 14:12 16.67008 -47.70139 30664 ft 483 kts 232°
2026-04-27 14:13 16.64869 -47.72842 31043 ft 482 kts 231°
2026-04-27 14:13 16.62735 -47.75535 31450 ft 480 kts 231°
2026-04-27 14:13 16.60611 -47.78215 31950 ft 477 kts 231°
2026-04-27 14:13 16.58499 -47.80880 32318 ft 476 kts 231°
2026-04-27 14:14 16.56391 -47.83538 32733 ft 475 kts 231°
2026-04-27 14:14 16.54289 -47.86188 33080 ft 474 kts 231°
2026-04-27 14:14 16.52188 -47.88836 33536 ft 471 kts 231°
2026-04-27 14:14 16.50128 -47.91432 33928 ft 470 kts 231°
2026-04-27 14:15 16.48037 -47.94066 34059 ft 473 kts 231°
2026-04-27 14:15 16.43834 -47.99357 34132 ft 473 kts 231°
2026-04-27 14:16 16.39651 -48.04618 34134 ft 469 kts 231°
2026-04-27 14:16 16.35494 -48.09843 34135 ft 468 kts 231°
2026-04-27 14:17 16.31338 -48.15063 34139 ft 467 kts 231°
2026-04-27 14:17 16.27206 -48.20249 34139 ft 468 kts 231°
2026-04-27 14:18 16.23030 -48.25487 34139 ft 470 kts 231°
2026-04-27 14:18 16.18847 -48.30729 34139 ft 471 kts 231°
2026-04-27 14:19 16.14648 -48.35987 34135 ft 472 kts 231°
2026-04-27 14:19 16.10443 -48.41249 34131 ft 472 kts 231°
2026-04-27 14:20 16.06271 -48.46466 34133 ft 471 kts 231°
2026-04-27 14:20 16.02078 -48.51706 34133 ft 471 kts 230°
2026-04-27 14:21 15.97887 -48.56938 34128 ft 470 kts 230°
2026-04-27 14:21 15.93723 -48.62134 34132 ft 470 kts 231°
2026-04-27 14:22 15.89534 -48.67358 34134 ft 469 kts 230°
2026-04-27 14:22 15.85347 -48.72574 34126 ft 470 kts 230°
2026-04-27 14:23 15.81185 -48.77757 34127 ft 470 kts 230°
2026-04-27 14:23 15.76989 -48.82978 34126 ft 470 kts 230°
2026-04-27 14:24 15.72795 -48.88192 34127 ft 470 kts 230°
2026-04-27 14:24 15.68604 -48.93399 34121 ft 470 kts 230°
2026-04-27 14:25 15.64397 -48.98622 34132 ft 471 kts 230°
2026-04-27 14:25 15.60213 -49.03814 34131 ft 472 kts 230°
2026-04-27 14:26 15.55995 -49.09043 34126 ft 472 kts 230°
2026-04-27 14:26 15.51780 -49.14265 34121 ft 471 kts 230°
2026-04-27 14:27 15.47571 -49.19476 34116 ft 471 kts 230°
2026-04-27 14:27 15.43357 -49.24690 34122 ft 471 kts 230°
2026-04-27 14:28 15.39136 -49.29909 34123 ft 471 kts 230°
2026-04-27 14:28 15.34944 -49.35088 34123 ft 472 kts 230°
2026-04-27 14:29 15.30720 -49.40303 34125 ft 471 kts 230°
2026-04-27 14:29 15.26503 -49.45506 34118 ft 471 kts 230°
2026-04-27 14:30 15.22285 -49.50706 34124 ft 471 kts 230°
2026-04-27 14:30 15.18084 -49.55883 34117 ft 472 kts 230°
2026-04-27 14:31 15.13855 -49.61090 34116 ft 472 kts 230°
2026-04-27 14:31 15.09629 -49.66290 34116 ft 472 kts 230°
2026-04-27 14:32 15.05406 -49.71483 34115 ft 472 kts 230°
2026-04-27 14:32 15.01200 -49.76651 34119 ft 472 kts 230°
2026-04-27 14:33 14.96968 -49.81847 34120 ft 472 kts 230°
2026-04-27 14:33 14.92727 -49.87053 34120 ft 472 kts 230°
2026-04-27 14:34 14.88485 -49.92255 34112 ft 472 kts 230°
2026-04-27 14:34 14.84244 -49.97452 34111 ft 473 kts 230°
2026-04-27 14:35 14.79999 -50.02650 34106 ft 474 kts 230°
2026-04-27 14:35 14.75761 -50.07837 34109 ft 474 kts 230°
2026-04-27 14:36 14.71488 -50.13063 34108 ft 474 kts 230°
2026-04-27 14:36 14.67235 -50.18261 34113 ft 473 kts 230°
2026-04-27 14:37 14.63009 -50.23423 34107 ft 473 kts 230°
2026-04-27 14:37 14.58728 -50.28650 34115 ft 478 kts 230°
2026-04-27 14:38 14.54412 -50.33913 34108 ft 481 kts 230°
2026-04-27 14:38 14.50103 -50.39166 34097 ft 477 kts 230°
2026-04-27 14:39 14.45864 -50.44330 34103 ft 473 kts 230°
2026-04-27 14:39 14.41620 -50.49498 34102 ft 473 kts 229°
2026-04-27 14:40 14.37332 -50.54715 34111 ft 480 kts 229°
2026-04-27 14:40 14.32989 -50.59995 34109 ft 482 kts 229°
2026-04-27 14:41 14.28659 -50.65257 34100 ft 478 kts 229°
2026-04-27 14:41 14.24359 -50.70479 34103 ft 475 kts 229°
2026-04-27 14:42 14.20105 -50.75640 34107 ft 477 kts 229°
2026-04-27 14:42 14.15797 -50.80866 34104 ft 479 kts 229°
2026-04-27 14:43 14.11471 -50.86109 34102 ft 480 kts 229°
2026-04-27 14:43 14.07154 -50.91339 34099 ft 478 kts 229°
2026-04-27 14:44 14.02862 -50.96535 34100 ft 474 kts 229°
2026-04-27 14:44 13.98526 -51.01606 34103 ft 474 kts 225°
2026-04-27 14:45 13.93871 -51.06464 34103 ft 479 kts 225°
2026-04-27 14:45 13.89133 -51.11358 34106 ft 484 kts 225°
2026-04-27 14:46 13.84376 -51.16293 34095 ft 483 kts 225°
2026-04-27 14:46 13.79677 -51.21184 34091 ft 477 kts 225°
2026-04-27 14:47 13.75041 -51.26014 34097 ft 477 kts 225°
2026-04-27 14:47 13.70346 -51.30902 34102 ft 484 kts 225°
2026-04-27 14:48 13.65578 -51.35861 34103 ft 489 kts 225°
2026-04-27 14:48 13.58443 -51.43277 34089 ft 482 kts 225°
2026-04-27 14:49 13.54532 -51.47338 34090 ft 480 kts 225°
2026-04-27 14:49 13.49076 -51.53001 34089 ft 478 kts 225°
2026-04-27 14:50 13.45147 -51.57077 34098 ft 480 kts 224°
2026-04-27 14:50 13.40433 -51.61964 34100 ft 482 kts 224°
2026-04-27 14:51 13.35724 -51.66844 34097 ft 485 kts 225°
2026-04-27 14:51 13.30945 -51.71792 34097 ft 487 kts 225°
2026-04-27 14:52 13.26165 -51.76739 34090 ft 488 kts 224°
2026-04-27 14:52 13.21381 -51.81688 34088 ft 488 kts 224°
2026-04-27 14:53 13.16626 -51.86602 34089 ft 487 kts 224°
2026-04-27 14:53 13.11853 -51.91534 34087 ft 487 kts 224°
2026-04-27 14:54 13.07081 -51.96461 34086 ft 486 kts 225°
2026-04-27 14:54 13.02319 -52.01375 34087 ft 485 kts 225°
2026-04-27 14:55 12.97560 -52.06283 34087 ft 485 kts 225°
2026-04-27 14:55 12.92789 -52.11186 34088 ft 485 kts 224°
2026-04-27 14:56 12.88044 -52.16062 34087 ft 486 kts 224°
2026-04-27 14:56 12.83274 -52.20974 34085 ft 486 kts 224°
2026-04-27 14:57 12.78490 -52.25899 34085 ft 487 kts 224°
2026-04-27 14:57 12.73711 -52.30816 34084 ft 487 kts 223°
2026-04-27 14:58 12.68916 -52.35744 34085 ft 488 kts 223°
2026-04-27 14:58 12.64139 -52.40650 34083 ft 488 kts 223°
2026-04-27 14:59 12.59339 -52.45578 34080 ft 489 kts 224°
2026-04-27 14:59 12.54524 -52.50518 34081 ft 489 kts 224°
2026-04-27 15:00 12.49745 -52.55420 34080 ft 489 kts 224°
2026-04-27 15:00 12.44937 -52.60347 34084 ft 489 kts 223°
2026-04-27 15:01 12.40126 -52.65274 34083 ft 489 kts 223°
2026-04-27 15:01 12.35318 -52.70197 34077 ft 489 kts 224°
2026-04-27 15:02 12.30504 -52.75122 34075 ft 489 kts 223°
2026-04-27 15:02 12.25730 -52.80004 34074 ft 489 kts 223°
2026-04-27 15:03 12.20910 -52.84929 34073 ft 489 kts 224°
2026-04-27 15:03 12.16085 -52.89858 34077 ft 490 kts 223°
2026-04-27 15:04 12.11286 -52.94758 34078 ft 490 kts 224°
2026-04-27 15:04 12.06458 -52.99685 34070 ft 490 kts 224°
2026-04-27 15:05 12.01624 -53.04614 34073 ft 490 kts 223°
2026-04-27 15:05 11.96795 -53.09537 34076 ft 490 kts 223°
2026-04-27 15:06 11.91990 -53.14432 34074 ft 490 kts 224°
2026-04-27 15:06 11.87158 -53.19353 34073 ft 491 kts 223°
2026-04-27 15:07 11.82304 -53.24293 34070 ft 491 kts 223°
2026-04-27 15:07 11.77471 -53.29208 34072 ft 490 kts 223°
2026-04-27 15:08 11.72633 -53.34126 34070 ft 490 kts 223°
2026-04-27 15:08 11.67835 -53.39002 34068 ft 490 kts 223°
2026-04-27 15:09 11.63005 -53.43907 34069 ft 489 kts 223°
2026-04-27 15:09 11.58170 -53.48814 34066 ft 489 kts 223°
2026-04-27 15:10 11.53345 -53.53709 34066 ft 489 kts 223°
2026-04-27 15:10 11.48513 -53.58609 34069 ft 489 kts 222°
2026-04-27 15:11 11.43676 -53.63511 34070 ft 490 kts 222°
2026-04-27 15:11 11.38872 -53.68377 34066 ft 490 kts 222°
2026-04-27 15:12 11.34023 -53.73287 34064 ft 491 kts 222°
2026-04-27 15:12 11.29173 -53.78195 34065 ft 491 kts 222°
2026-04-27 15:13 11.24319 -53.83103 34064 ft 491 kts 223°
2026-04-27 15:13 11.19465 -53.88010 34061 ft 491 kts 223°
2026-04-27 15:14 11.14616 -53.92910 34062 ft 491 kts 222°
2026-04-27 15:14 11.09791 -53.97782 34059 ft 491 kts 223°
2026-04-27 15:15 11.04926 -54.02693 34061 ft 491 kts 223°
2026-04-27 15:15 11.00069 -54.07594 34059 ft 491 kts 222°
2026-04-27 15:16 10.95214 -54.12489 34057 ft 491 kts 223°
2026-04-27 15:16 10.90379 -54.17363 34058 ft 492 kts 223°
2026-04-27 15:17 10.85514 -54.22264 34062 ft 492 kts 222°
2026-04-27 15:17 10.80645 -54.27167 34059 ft 492 kts 222°
2026-04-27 15:18 10.75784 -54.32059 34056 ft 492 kts 222°
2026-04-27 15:18 10.70918 -54.36953 34054 ft 492 kts 222°
2026-04-27 15:19 10.66068 -54.41830 34054 ft 492 kts 222°
2026-04-27 15:19 10.61199 -54.46723 34057 ft 492 kts 223°
2026-04-27 15:20 10.56321 -54.51623 34056 ft 492 kts 223°
2026-04-27 15:20 10.51452 -54.56513 34055 ft 492 kts 223°
2026-04-27 15:21 10.46572 -54.61410 34054 ft 492 kts 222°
2026-04-27 15:21 10.41694 -54.66302 34053 ft 493 kts 222°
2026-04-27 15:22 10.36836 -54.71174 34049 ft 493 kts 222°
2026-04-27 15:22 10.31943 -54.76077 34048 ft 493 kts 222°
2026-04-27 15:23 10.27051 -54.80978 34051 ft 493 kts 222°
2026-04-27 15:23 10.22193 -54.85842 34048 ft 493 kts 222°
2026-04-27 15:24 10.17295 -54.90744 34044 ft 493 kts 222°
2026-04-27 15:24 10.12402 -54.95639 34047 ft 494 kts 222°
2026-04-27 15:25 10.07508 -55.00532 34046 ft 494 kts 222°
2026-04-27 15:25 10.02614 -55.05424 34045 ft 494 kts 222°
2026-04-27 15:26 9.97716 -55.10317 34044 ft 494 kts 222°
2026-04-27 15:26 9.92848 -55.15178 34041 ft 494 kts 222°
2026-04-27 15:27 9.87939 -55.20078 34043 ft 494 kts 222°
2026-04-27 15:27 9.83032 -55.24973 34046 ft 494 kts 222°
2026-04-27 15:28 9.78162 -55.29830 34043 ft 494 kts 222°
2026-04-27 15:28 9.73256 -55.34721 34040 ft 494 kts 222°
2026-04-27 15:29 9.68357 -55.39602 34041 ft 494 kts 222°
2026-04-27 15:29 9.63450 -55.44490 34035 ft 494 kts 222°
2026-04-27 15:30 9.58541 -55.49377 34042 ft 494 kts 222°
2026-04-27 15:30 9.53660 -55.54234 34042 ft 494 kts 222°
2026-04-27 15:31 9.48759 -55.59109 34041 ft 494 kts 222°
2026-04-27 15:31 9.43844 -55.63996 34039 ft 494 kts 222°
2026-04-27 15:32 9.38965 -55.68846 34035 ft 494 kts 222°
2026-04-27 15:32 9.34054 -55.73725 34038 ft 494 kts 222°
2026-04-27 15:33 9.29134 -55.78612 34041 ft 494 kts 222°
2026-04-27 15:33 9.24225 -55.83487 34039 ft 494 kts 222°
2026-04-27 15:34 9.19311 -55.88364 34037 ft 495 kts 222°
2026-04-27 15:34 9.14428 -55.93212 34036 ft 495 kts 222°
2026-04-27 15:35 9.09511 -55.98089 34040 ft 495 kts 222°
2026-04-27 15:35 9.04418 -56.02785 34038 ft 494 kts 218°
2026-04-27 15:36 9.00100 -56.06551 34033 ft 493 kts 218°
2026-04-27 15:36 8.94894 -56.11082 34034 ft 493 kts 218°
2026-04-27 15:37 8.89703 -56.15636 34036 ft 493 kts 218°
2026-04-27 15:37 8.84520 -56.20200 34037 ft 493 kts 218°
2026-04-27 15:38 8.79366 -56.24740 34033 ft 494 kts 219°
2026-04-27 15:38 8.74187 -56.29299 34035 ft 494 kts 218°
2026-04-27 15:39 8.68997 -56.33864 34031 ft 494 kts 218°
2026-04-27 15:39 8.63801 -56.38433 34034 ft 494 kts 218°
2026-04-27 15:40 8.58649 -56.42961 34034 ft 494 kts 218°
2026-04-27 15:40 8.53469 -56.47512 34033 ft 494 kts 218°
2026-04-27 15:41 8.48268 -56.52079 34034 ft 494 kts 218°
2026-04-27 15:41 8.43075 -56.56639 34031 ft 494 kts 218°
2026-04-27 15:42 8.37881 -56.61197 34027 ft 494 kts 218°
2026-04-27 15:42 8.32684 -56.65756 34028 ft 495 kts 218°
2026-04-27 15:43 8.27520 -56.70286 34028 ft 495 kts 218°
2026-04-27 15:43 8.22316 -56.74849 34028 ft 495 kts 218°
2026-04-27 15:44 8.17110 -56.79412 34030 ft 495 kts 218°
2026-04-27 15:44 8.11909 -56.83969 34032 ft 495 kts 218°
2026-04-27 15:45 8.06707 -56.88526 34025 ft 495 kts 218°
2026-04-27 15:45 8.01497 -56.93090 34024 ft 495 kts 218°
2026-04-27 15:46 7.96290 -56.97652 34024 ft 495 kts 218°
2026-04-27 15:46 7.91087 -57.02202 34025 ft 495 kts 218°
2026-04-27 15:47 7.85906 -57.06729 34027 ft 495 kts 218°
2026-04-27 15:47 7.80682 -57.11300 34029 ft 496 kts 218°
2026-04-27 15:48 7.75466 -57.15865 34029 ft 496 kts 218°
2026-04-27 15:49 7.67673 -57.22684 34024 ft 496 kts 218°
2026-04-27 15:49 7.62452 -57.27249 34032 ft 496 kts 218°
2026-04-27 15:50 7.57228 -57.31817 34026 ft 497 kts 218°
2026-04-27 15:50 7.51996 -57.36391 34028 ft 497 kts 218°
2026-04-27 15:51 7.46805 -57.40927 34029 ft 497 kts 218°
2026-04-27 15:51 7.41564 -57.45508 34011 ft 498 kts 218°
2026-04-27 15:52 7.36330 -57.50080 34020 ft 498 kts 218°
2026-04-27 15:52 7.31097 -57.54653 34027 ft 498 kts 219°
2026-04-27 15:53 7.25871 -57.59232 34026 ft 498 kts 219°
2026-04-27 15:53 7.20638 -57.63821 34028 ft 498 kts 219°
2026-04-27 15:54 7.15439 -57.68381 34011 ft 498 kts 219°
2026-04-27 15:54 7.10202 -57.72971 34013 ft 498 kts 219°
2026-04-27 15:55 7.04964 -57.77560 34026 ft 498 kts 219°
2026-04-27 15:55 6.99729 -57.82145 34029 ft 498 kts 219°
2026-04-27 15:56 6.94498 -57.86725 34033 ft 498 kts 219°
2026-04-27 15:56 6.89267 -57.91304 34022 ft 498 kts 219°
2026-04-27 15:57 6.84066 -57.95855 34044 ft 498 kts 219°
2026-04-27 15:57 6.78832 -58.00434 34052 ft 498 kts 219°
2026-04-27 15:58 6.73598 -58.05012 34035 ft 498 kts 219°
2026-04-27 15:58 6.68367 -58.09586 34051 ft 498 kts 219°
2026-04-27 15:59 6.63167 -58.14133 34025 ft 498 kts 219°
2026-04-27 15:59 6.57937 -58.18706 34010 ft 498 kts 219°
2026-04-27 16:00 6.52700 -58.23285 34024 ft 498 kts 219°
2026-04-27 16:00 6.47486 -58.27887 34006 ft 499 kts 220°
2026-04-27 16:01 6.42423 -58.32679 34026 ft 499 kts 222°
2026-04-27 16:01 6.37398 -58.37519 34011 ft 500 kts 222°
2026-04-27 16:02 6.32374 -58.42307 34006 ft 500 kts 221°
2026-04-27 16:02 6.27299 -58.47102 34007 ft 500 kts 221°
2026-04-27 16:03 6.22219 -58.51898 34025 ft 500 kts 221°
2026-04-27 16:03 6.17155 -58.56684 34024 ft 499 kts 221°
2026-04-27 16:04 6.12094 -58.61469 34003 ft 499 kts 221°
2026-04-27 16:04 6.07064 -58.66221 34014 ft 499 kts 221°
2026-04-27 16:05 6.02021 -58.71035 33998 ft 499 kts 222°
2026-04-27 16:05 5.97008 -58.75856 34015 ft 499 kts 222°
2026-04-27 16:06 5.91993 -58.80674 34018 ft 498 kts 222°
2026-04-27 16:06 5.86975 -58.85487 34000 ft 498 kts 222°
2026-04-27 16:07 5.81982 -58.90271 33997 ft 499 kts 222°
2026-04-27 16:07 5.76952 -58.95090 33997 ft 499 kts 222°
2026-04-27 16:08 5.71935 -58.99897 33991 ft 499 kts 222°
2026-04-27 16:08 5.66947 -59.04674 34011 ft 499 kts 222°
2026-04-27 16:09 5.61928 -59.09480 34011 ft 498 kts 222°
2026-04-27 16:09 5.54400 -59.16686 34011 ft 497 kts 222°
2026-04-27 16:10 5.44427 -59.26228 33998 ft 496 kts 222°
2026-04-27 16:11 5.36935 -59.33393 34024 ft 495 kts 221°
2026-04-27 16:12 5.29466 -59.40535 34025 ft 493 kts 221°
2026-04-27 16:13 5.22034 -59.47639 34029 ft 493 kts 221°
2026-04-27 16:13 5.14607 -59.54765 34016 ft 492 kts 221°
2026-04-27 16:14 5.04732 -59.64253 34023 ft 491 kts 221°
2026-04-27 16:15 4.94892 -59.73698 34039 ft 490 kts 221°
2026-04-27 16:16 4.85004 -59.83183 34013 ft 492 kts 221°
2026-04-27 16:17 4.75124 -59.92658 34028 ft 492 kts 221°
2026-04-27 16:18 4.65206 -60.02167 34021 ft 492 kts 221°
2026-04-27 16:19 4.60250 -60.06917 33993 ft 492 kts 221°
2026-04-27 16:20 4.50384 -60.16395 34010 ft 492 kts 222°
2026-04-27 16:21 4.43045 -60.23545 33976 ft 492 kts 222°
2026-04-27 16:22 4.34024 -60.32324 33982 ft 492 kts 222°
2026-04-27 16:22 4.26678 -60.39462 33967 ft 492 kts 222°
2026-04-27 16:23 4.19297 -60.46634 33978 ft 492 kts 222°
2026-04-27 16:24 4.14377 -60.51413 33959 ft 492 kts 222°
2026-04-27 16:25 4.04574 -60.60934 33968 ft 492 kts 222°
2026-04-27 16:26 3.94739 -60.70483 33967 ft 492 kts 222°
2026-04-27 16:27 3.84895 -60.80066 33974 ft 493 kts 223°
2026-04-27 16:28 3.72777 -60.92223 33957 ft 494 kts 223°
2026-04-27 16:29 3.60502 -61.04210 33975 ft 494 kts 221°
2026-04-27 16:30 3.50563 -61.13742 33979 ft 494 kts 221°
2026-04-27 16:31 3.38179 -61.25655 33989 ft 495 kts 221°
2026-04-27 16:32 3.30714 -61.32834 33985 ft 496 kts 221°
2026-04-27 16:33 3.23275 -61.39986 33989 ft 496 kts 221°
2026-04-27 16:33 3.18298 -61.44771 33986 ft 496 kts 221°
2026-04-27 16:34 3.13320 -61.49555 33978 ft 496 kts 221°
2026-04-27 16:34 3.08342 -61.54344 33978 ft 496 kts 221°
2026-04-27 16:35 3.03370 -61.59130 34004 ft 496 kts 221°
2026-04-27 16:36 2.95944 -61.66278 33980 ft 496 kts 221°
2026-04-27 16:36 2.90967 -61.71067 34006 ft 495 kts 221°
2026-04-27 16:37 2.85978 -61.75824 33993 ft 495 kts 221°
2026-04-27 16:37 2.80961 -61.80565 33991 ft 495 kts 221°
2026-04-27 16:38 2.75969 -61.85332 33989 ft 496 kts 221°
2026-04-27 16:38 2.71003 -61.90114 33991 ft 496 kts 221°
2026-04-27 16:39 2.66057 -61.94875 33985 ft 497 kts 222°
2026-04-27 16:39 2.61067 -61.99671 33987 ft 498 kts 222°
2026-04-27 16:40 2.56065 -62.04476 33988 ft 498 kts 222°
2026-04-27 16:40 2.51089 -62.09255 34005 ft 499 kts 222°
2026-04-27 16:41 2.46074 -62.14073 33990 ft 499 kts 222°
2026-04-27 16:41 2.41062 -62.18887 33988 ft 499 kts 222°
2026-04-27 16:42 2.36047 -62.23703 33984 ft 500 kts 222°
2026-04-27 16:42 2.31026 -62.28525 34007 ft 500 kts 222°
2026-04-27 16:43 2.25994 -62.33338 34002 ft 500 kts 221°
2026-04-27 16:43 2.20945 -62.38144 33984 ft 501 kts 221°
2026-04-27 16:44 2.15950 -62.42948 33982 ft 501 kts 222°
2026-04-27 16:44 2.10939 -62.47798 33987 ft 501 kts 222°
2026-04-27 16:45 2.05935 -62.52641 33978 ft 501 kts 222°
2026-04-27 16:45 2.00920 -62.57487 33978 ft 501 kts 221°
2026-04-27 16:46 1.95897 -62.62336 33972 ft 501 kts 221°
2026-04-27 16:46 1.90880 -62.67180 33974 ft 501 kts 221°
2026-04-27 16:47 1.85894 -62.71994 33988 ft 501 kts 221°
2026-04-27 16:47 1.80864 -62.76850 33971 ft 501 kts 221°
2026-04-27 16:48 1.75841 -62.81700 33967 ft 501 kts 221°
2026-04-27 16:48 1.70818 -62.86548 33967 ft 501 kts 222°
2026-04-27 16:49 1.63346 -62.93761 33965 ft 499 kts 221°
2026-04-27 16:49 1.58347 -62.98585 33967 ft 499 kts 221°
2026-04-27 16:50 1.53357 -63.03401 33962 ft 498 kts 221°
2026-04-27 16:50 1.48366 -63.08217 33962 ft 498 kts 221°
2026-04-27 16:51 1.43404 -63.13005 33965 ft 498 kts 221°
2026-04-27 16:51 1.38412 -63.17822 33965 ft 498 kts 221°
2026-04-27 16:52 1.33417 -63.22642 33969 ft 498 kts 221°
2026-04-27 16:52 1.28431 -63.27453 33976 ft 499 kts 221°
2026-04-27 16:53 1.23432 -63.32276 33972 ft 499 kts 221°
2026-04-27 16:53 1.18470 -63.37071 33994 ft 499 kts 221°
2026-04-27 16:54 1.13494 -63.41930 33976 ft 499 kts 222°
2026-04-27 16:54 1.08513 -63.46802 33974 ft 500 kts 221°
2026-04-27 16:55 1.03537 -63.51660 33972 ft 500 kts 221°
2026-04-27 16:55 0.98535 -63.56500 33966 ft 500 kts 221°
2026-04-27 16:56 0.93557 -63.61290 33962 ft 500 kts 221°
2026-04-27 16:56 0.88542 -63.66120 33962 ft 500 kts 221°
2026-04-27 16:57 0.83533 -63.70950 33956 ft 500 kts 221°
2026-04-27 16:57 0.78556 -63.75751 33970 ft 499 kts 221°
2026-04-27 16:58 0.73556 -63.80575 33944 ft 498 kts 221°
2026-04-27 16:58 0.68569 -63.85386 33957 ft 497 kts 221°
2026-04-27 16:59 0.63586 -63.90191 33958 ft 497 kts 221°
2026-04-27 16:59 0.58609 -63.94991 33940 ft 497 kts 221°
2026-04-27 17:00 0.51177 -64.02159 33947 ft 497 kts 221°
2026-04-27 17:01 0.46203 -64.06956 33960 ft 497 kts 222°
2026-04-27 17:01 0.41228 -64.11754 33961 ft 496 kts 221°
2026-04-27 17:02 0.36290 -64.16516 33940 ft 496 kts 221°
2026-04-27 17:02 0.31322 -64.21308 33941 ft 497 kts 221°
2026-04-27 17:03 0.26335 -64.26117 33942 ft 497 kts 221°
2026-04-27 17:03 0.21345 -64.30930 33944 ft 498 kts 221°
2026-04-27 17:04 0.16354 -64.35744 33942 ft 499 kts 221°
2026-04-27 17:04 0.11386 -64.40536 33955 ft 499 kts 222°
2026-04-27 17:05 0.06398 -64.45355 33960 ft 498 kts 222°
2026-04-27 17:05 0.01452 -64.50218 33940 ft 498 kts 223°
2026-04-27 17:06 -0.03477 -64.55093 33937 ft 498 kts 223°
2026-04-27 17:06 -0.08369 -64.59924 33953 ft 498 kts 222°
2026-04-27 17:07 -0.13311 -64.64794 33954 ft 498 kts 222°
2026-04-27 17:07 -0.18245 -64.69654 33956 ft 498 kts 222°
2026-04-27 17:08 -0.23182 -64.74518 33942 ft 499 kts 222°
2026-04-27 17:08 -0.28128 -64.79392 33938 ft 499 kts 222°
2026-04-27 17:09 -0.33042 -64.84234 33955 ft 499 kts 222°
2026-04-27 17:09 -0.37989 -64.89108 33953 ft 499 kts 222°
2026-04-27 17:10 -0.42939 -64.93986 33940 ft 499 kts 222°
2026-04-27 17:10 -0.47054 -64.98041 33958 ft 499 kts 223°
2026-04-27 17:11 -0.52798 -65.03702 33949 ft 498 kts 223°
2026-04-27 17:11 -0.59390 -65.10200 33952 ft 497 kts 223°
2026-04-27 17:12 -0.66754 -65.17458 33951 ft 497 kts 223°
2026-04-27 17:13 -0.71689 -65.22291 33956 ft 496 kts 222°
2026-04-27 17:13 -0.76604 -65.27082 33938 ft 496 kts 222°
2026-04-27 17:14 -0.81545 -65.31906 33945 ft 496 kts 223°
2026-04-27 17:14 -0.86368 -65.36852 33930 ft 497 kts 227°
2026-04-27 17:15 -0.90916 -65.42054 33949 ft 497 kts 227°
2026-04-27 17:15 -0.95471 -65.47253 33952 ft 497 kts 227°
2026-04-27 17:16 -1.00025 -65.52397 33943 ft 497 kts 227°
2026-04-27 17:16 -1.04621 -65.57554 33929 ft 497 kts 227°
2026-04-27 17:17 -1.09222 -65.62715 33941 ft 497 kts 227°
2026-04-27 17:17 -1.13818 -65.67877 33939 ft 497 kts 227°
2026-04-27 17:18 -1.20700 -65.75611 33936 ft 496 kts 227°
2026-04-27 17:18 -1.25294 -65.80775 33937 ft 496 kts 227°
2026-04-27 17:19 -1.29874 -65.85922 33937 ft 496 kts 227°
2026-04-27 17:19 -1.34428 -65.91041 33937 ft 495 kts 227°
2026-04-27 17:20 -1.39005 -65.96186 33943 ft 495 kts 227°
2026-04-27 17:20 -1.43586 -66.01334 33922 ft 494 kts 227°
2026-04-27 17:21 -1.48153 -66.06470 33937 ft 494 kts 227°
2026-04-27 17:21 -1.52723 -66.11608 33939 ft 494 kts 227°
2026-04-27 17:22 -1.57258 -66.16707 33919 ft 494 kts 227°
2026-04-27 17:22 -1.61823 -66.21840 33935 ft 494 kts 227°
2026-04-27 17:23 -1.66389 -66.26974 33932 ft 493 kts 227°
2026-04-27 17:23 -1.70951 -66.32104 33936 ft 493 kts 227°
2026-04-27 17:24 -1.75482 -66.37201 33932 ft 493 kts 227°
2026-04-27 17:24 -1.80037 -66.42325 33937 ft 492 kts 227°
2026-04-27 17:25 -1.84587 -66.47444 33930 ft 491 kts 227°
2026-04-27 17:25 -1.89128 -66.52554 33931 ft 491 kts 227°
2026-04-27 17:26 -1.93662 -66.57654 33930 ft 491 kts 227°
2026-04-27 17:26 -1.98202 -66.62761 33932 ft 490 kts 227°
2026-04-27 17:27 -2.02704 -66.67827 33935 ft 491 kts 227°
2026-04-27 17:27 -2.07247 -66.72939 33928 ft 491 kts 227°
2026-04-27 17:28 -2.11782 -66.78049 33924 ft 491 kts 227°
2026-04-27 17:29 -2.18583 -66.85717 33932 ft 491 kts 227°
2026-04-27 17:29 -2.23123 -66.90837 33933 ft 492 kts 227°
2026-04-27 17:30 -2.27637 -66.95928 33927 ft 492 kts 227°
2026-04-27 17:30 -2.34474 -67.03582 33927 ft 491 kts 226°
2026-04-27 17:31 -2.39101 -67.08613 33926 ft 491 kts 226°
2026-04-27 17:31 -2.43724 -67.13650 33930 ft 491 kts 226°
2026-04-27 17:32 -2.50610 -67.21176 33929 ft 491 kts 226°
2026-04-27 17:33 -2.55403 -67.26051 33931 ft 490 kts 224°
2026-04-27 17:33 -2.60255 -67.30853 33931 ft 490 kts 224°
2026-04-27 17:34 -2.65043 -67.35654 33927 ft 490 kts 224°
2026-04-27 17:34 -2.69850 -67.40508 33929 ft 490 kts 224°
2026-04-27 17:35 -2.74657 -67.45357 33926 ft 490 kts 224°
2026-04-27 17:35 -2.79460 -67.50217 33928 ft 490 kts 224°
2026-04-27 17:36 -2.84246 -67.55073 33923 ft 490 kts 225°
2026-04-27 17:36 -2.89003 -67.59900 33927 ft 490 kts 225°
2026-04-27 17:37 -2.93792 -67.64759 33922 ft 490 kts 225°
2026-04-27 17:37 -2.98570 -67.69606 33927 ft 489 kts 225°
2026-04-27 17:38 -3.03356 -67.74463 33929 ft 489 kts 225°
2026-04-27 17:38 -3.08137 -67.79314 33926 ft 489 kts 225°
2026-04-27 17:39 -3.12913 -67.84161 33923 ft 489 kts 225°
2026-04-27 17:39 -3.17688 -67.89008 33921 ft 489 kts 225°
2026-04-27 17:40 -3.22438 -67.93831 33926 ft 490 kts 224°
2026-04-27 17:40 -3.27221 -67.98687 33928 ft 490 kts 224°
2026-04-27 17:41 -3.32018 -68.03558 33928 ft 490 kts 224°
2026-04-27 17:41 -3.36817 -68.08432 33928 ft 491 kts 224°
2026-04-27 17:42 -3.41587 -68.13277 33922 ft 491 kts 224°
2026-04-27 17:42 -3.46387 -68.18154 33923 ft 491 kts 224°
2026-04-27 17:43 -3.51181 -68.23025 33924 ft 490 kts 224°
2026-04-27 17:43 -3.55974 -68.27896 33922 ft 490 kts 224°
2026-04-27 17:44 -3.60733 -68.32734 33920 ft 490 kts 224°
2026-04-27 17:44 -3.65521 -68.37601 33925 ft 490 kts 224°
2026-04-27 17:45 -3.70308 -68.42468 33922 ft 490 kts 224°
2026-04-27 17:45 -3.75104 -68.47346 33921 ft 491 kts 224°
2026-04-27 17:46 -3.79892 -68.52216 33928 ft 491 kts 224°
2026-04-27 17:46 -3.84663 -68.57069 33921 ft 491 kts 224°
2026-04-27 17:47 -3.89466 -68.61956 33921 ft 491 kts 224°
2026-04-27 17:47 -3.94263 -68.66839 33924 ft 492 kts 224°
2026-04-27 17:48 -3.99032 -68.71694 33926 ft 492 kts 224°
2026-04-27 17:48 -4.03840 -68.76591 33923 ft 492 kts 224°
2026-04-27 17:49 -4.08644 -68.81494 33927 ft 492 kts 224°
2026-04-27 17:49 -4.13444 -68.86396 33925 ft 492 kts 225°
2026-04-27 17:50 -4.18238 -68.91293 33924 ft 491 kts 225°
2026-04-27 17:50 -4.25381 -68.98589 33923 ft 490 kts 225°
2026-04-27 17:51 -4.30154 -69.03466 33920 ft 490 kts 224°
2026-04-27 17:51 -4.34932 -69.08349 33920 ft 490 kts 224°
2026-04-27 17:52 -4.39710 -69.13232 33922 ft 491 kts 224°
2026-04-27 17:52 -4.43686 -69.17298 33921 ft 491 kts 224°
2026-04-27 17:53 -4.49249 -69.22986 33925 ft 491 kts 225°
2026-04-27 17:53 -4.54036 -69.27882 33921 ft 490 kts 225°
2026-04-27 17:54 -4.58801 -69.32757 33920 ft 489 kts 225°
2026-04-27 17:54 -4.63562 -69.37630 33917 ft 488 kts 225°
2026-04-27 17:55 -4.68321 -69.42500 33922 ft 488 kts 224°
2026-04-27 17:55 -4.73055 -69.47336 33928 ft 489 kts 224°
2026-04-27 17:56 -4.77822 -69.52198 33925 ft 489 kts 224°
2026-04-27 17:56 -4.82600 -69.57074 33923 ft 490 kts 224°
2026-04-27 17:57 -4.87380 -69.61956 33926 ft 490 kts 224°
2026-04-27 17:57 -4.92140 -69.66819 33919 ft 491 kts 224°
2026-04-27 17:58 -4.96924 -69.71710 33923 ft 491 kts 225°
2026-04-27 17:58 -5.00902 -69.75782 33923 ft 491 kts 225°
2026-04-27 17:59 -5.05691 -69.80687 33920 ft 491 kts 225°
2026-04-27 17:59 -5.10473 -69.85586 33920 ft 491 kts 225°
2026-04-27 18:00 -5.15249 -69.90481 33921 ft 491 kts 225°
2026-04-27 18:00 -5.20005 -69.95355 33926 ft 491 kts 225°
2026-04-27 18:01 -5.24781 -70.00252 33927 ft 491 kts 225°
2026-04-27 18:01 -5.29564 -70.05156 33925 ft 491 kts 225°
2026-04-27 18:02 -5.34347 -70.10061 33923 ft 491 kts 225°
2026-04-27 18:02 -5.39109 -70.14947 33926 ft 491 kts 225°
2026-04-27 18:03 -5.43894 -70.19857 33923 ft 491 kts 225°
2026-04-27 18:03 -5.48677 -70.24766 33923 ft 491 kts 225°
2026-04-27 18:04 -5.53457 -70.29673 33921 ft 491 kts 225°
2026-04-27 18:04 -5.58243 -70.34588 33926 ft 492 kts 225°
2026-04-27 18:05 -5.62994 -70.39468 33925 ft 492 kts 225°
2026-04-27 18:05 -5.67782 -70.44387 33920 ft 492 kts 225°
2026-04-27 18:06 -5.72574 -70.49312 33927 ft 492 kts 225°
2026-04-27 18:06 -5.77361 -70.54233 33929 ft 492 kts 226°
2026-04-27 18:07 -5.82149 -70.59155 33921 ft 492 kts 225°
2026-04-27 18:07 -5.86928 -70.64071 33924 ft 491 kts 225°
2026-04-27 18:08 -5.91669 -70.68949 33921 ft 491 kts 225°
2026-04-27 18:08 -5.96442 -70.73861 33920 ft 491 kts 225°
2026-04-27 18:09 -6.01217 -70.78776 33925 ft 491 kts 225°
2026-04-27 18:09 -6.05991 -70.83684 33922 ft 491 kts 225°
2026-04-27 18:10 -6.10775 -70.88594 33925 ft 491 kts 225°
2026-04-27 18:10 -6.15561 -70.93509 33922 ft 492 kts 226°
2026-04-27 18:11 -6.20319 -70.98398 33925 ft 493 kts 226°
2026-04-27 18:11 -6.25122 -71.03336 33925 ft 494 kts 226°
2026-04-27 18:12 -6.29925 -71.08275 33923 ft 494 kts 226°
2026-04-27 18:12 -6.34738 -71.13227 33920 ft 495 kts 226°
2026-04-27 18:13 -6.39549 -71.18178 33920 ft 495 kts 226°
2026-04-27 18:13 -6.44323 -71.23106 33921 ft 494 kts 226°
2026-04-27 18:14 -6.49124 -71.28069 33922 ft 494 kts 226°
2026-04-27 18:14 -6.53920 -71.33028 33925 ft 494 kts 226°
2026-04-27 18:15 -6.58711 -71.37983 33926 ft 494 kts 226°
2026-04-27 18:15 -6.63504 -71.42939 33926 ft 493 kts 226°
2026-04-27 18:16 -6.68271 -71.47865 33928 ft 493 kts 226°
2026-04-27 18:16 -6.73057 -71.52814 33925 ft 493 kts 226°
2026-04-27 18:17 -6.77849 -71.57771 33926 ft 493 kts 226°
2026-04-27 18:17 -6.82634 -71.62724 33923 ft 493 kts 226°
2026-04-27 18:18 -6.87389 -71.67647 33925 ft 493 kts 226°
2026-04-27 18:18 -6.92174 -71.72603 33926 ft 493 kts 226°
2026-04-27 18:19 -6.96944 -71.77544 33923 ft 492 kts 226°
2026-04-27 18:19 -7.01720 -71.82494 33926 ft 492 kts 226°
2026-04-27 18:20 -7.06497 -71.87446 33925 ft 492 kts 226°
2026-04-27 18:20 -7.11260 -71.92386 33922 ft 491 kts 226°
2026-04-27 18:21 -7.15993 -71.97296 33925 ft 491 kts 226°
2026-04-27 18:21 -7.20756 -72.02236 33924 ft 491 kts 226°
2026-04-27 18:22 -7.25515 -72.07164 33926 ft 490 kts 226°
2026-04-27 18:22 -7.30256 -72.12077 33922 ft 488 kts 226°
2026-04-27 18:23 -7.34981 -72.16976 33921 ft 486 kts 226°
2026-04-27 18:23 -7.39656 -72.21826 33920 ft 484 kts 226°
2026-04-27 18:24 -7.44347 -72.26695 33927 ft 483 kts 226°
2026-04-27 18:24 -7.49027 -72.31553 33923 ft 481 kts 226°
2026-04-27 18:25 -7.53658 -72.36362 33918 ft 480 kts 226°
2026-04-27 18:25 -7.58305 -72.41189 33917 ft 478 kts 226°
2026-04-27 18:26 -7.62936 -72.46002 33925 ft 478 kts 226°
2026-04-27 18:26 -7.67548 -72.50796 33932 ft 478 kts 226°
2026-04-27 18:27 -7.72196 -72.55629 33930 ft 479 kts 226°
2026-04-27 18:27 -7.76812 -72.60430 33920 ft 479 kts 226°
2026-04-27 18:28 -7.81461 -72.65270 33924 ft 480 kts 226°
2026-04-27 18:28 -7.86111 -72.70112 33923 ft 480 kts 226°
2026-04-27 18:29 -7.90760 -72.74956 33917 ft 480 kts 226°
2026-04-27 18:29 -7.95377 -72.79769 33918 ft 480 kts 226°
2026-04-27 18:30 -8.00028 -72.84618 33913 ft 480 kts 226°
2026-04-27 18:30 -8.04680 -72.89470 33923 ft 481 kts 226°
2026-04-27 18:31 -8.09335 -72.94327 33921 ft 482 kts 226°
2026-04-27 18:31 -8.14008 -72.99204 33927 ft 483 kts 226°
2026-04-27 18:32 -8.18649 -73.04050 33920 ft 483 kts 226°
2026-04-27 18:32 -8.23323 -73.08932 33920 ft 483 kts 226°
2026-04-27 18:33 -8.28002 -73.13821 33923 ft 483 kts 226°
2026-04-27 18:33 -8.32684 -73.18716 33921 ft 483 kts 226°
2026-04-27 18:34 -8.37324 -73.23568 33921 ft 484 kts 227°
2026-04-27 18:34 -8.42015 -73.28476 33929 ft 485 kts 227°
2026-04-27 18:35 -8.46710 -73.33389 33927 ft 486 kts 227°
2026-04-27 18:35 -8.51368 -73.38357 33927 ft 488 kts 227°
2026-04-27 18:36 -8.55997 -73.43386 33932 ft 489 kts 228°
2026-04-27 18:36 -8.60606 -73.48386 33928 ft 489 kts 227°
2026-04-27 18:37 -8.65259 -73.53420 33932 ft 489 kts 227°
2026-04-27 18:37 -8.69903 -73.58443 33926 ft 489 kts 227°
2026-04-27 18:38 -8.74547 -73.63469 33910 ft 489 kts 227°
2026-04-27 18:38 -8.79188 -73.68494 33935 ft 489 kts 227°
2026-04-27 18:39 -8.83811 -73.73501 33923 ft 489 kts 227°
2026-04-27 18:39 -8.88463 -73.78526 33928 ft 489 kts 227°
2026-04-27 18:40 -8.93114 -73.83542 33932 ft 489 kts 227°
2026-04-27 18:40 -8.97759 -73.88557 33934 ft 488 kts 227°
2026-04-27 18:41 -9.02410 -73.93583 33924 ft 488 kts 227°
2026-04-27 18:41 -9.07047 -73.98596 33926 ft 488 kts 227°
2026-04-27 18:42 -9.10123 -74.01923 33932 ft 488 kts 227°
2026-04-27 18:42 -9.16290 -74.08596 33911 ft 486 kts 226°
2026-04-27 18:43 -9.20890 -74.13577 33924 ft 484 kts 226°
2026-04-27 18:43 -9.25495 -74.18571 33921 ft 483 kts 227°
2026-04-27 18:44 -9.30084 -74.23552 33918 ft 483 kts 226°
2026-04-27 18:44 -9.34641 -74.28501 33939 ft 483 kts 226°
2026-04-27 18:45 -9.39226 -74.33481 33940 ft 483 kts 226°
2026-04-27 18:45 -9.43817 -74.38470 33944 ft 484 kts 226°
2026-04-27 18:46 -9.48399 -74.43451 33957 ft 487 kts 227°
2026-04-27 18:46 -9.52278 -74.47670 33958 ft 489 kts 227°
2026-04-27 18:47 -9.56920 -74.52721 33952 ft 490 kts 227°
2026-04-27 18:47 -9.61567 -74.57778 33936 ft 490 kts 227°
2026-04-27 18:48 -9.66188 -74.62810 33951 ft 489 kts 227°
2026-04-27 18:48 -9.70823 -74.67860 33945 ft 488 kts 227°
2026-04-27 18:49 -9.75447 -74.72899 33938 ft 487 kts 227°
2026-04-27 18:49 -9.80071 -74.77941 33930 ft 487 kts 227°
2026-04-27 18:50 -9.84652 -74.82938 33926 ft 487 kts 227°
2026-04-27 18:50 -9.89262 -74.87968 33918 ft 486 kts 227°
2026-04-27 18:51 -9.93869 -74.92998 33924 ft 486 kts 227°
2026-04-27 18:51 -9.98461 -74.98014 33924 ft 485 kts 227°
2026-04-27 18:52 -10.03057 -75.03036 33921 ft 485 kts 227°
2026-04-27 18:53 -10.09884 -75.10500 33928 ft 475 kts 227°
2026-04-27 18:53 -10.14361 -75.15398 33957 ft 472 kts 227°
2026-04-27 18:54 -10.18841 -75.20301 33944 ft 474 kts 227°
2026-04-27 18:54 -10.23328 -75.25215 34021 ft 475 kts 227°
2026-04-27 18:55 -10.27827 -75.30143 34026 ft 475 kts 227°
2026-04-27 18:55 -10.32298 -75.35042 34019 ft 476 kts 227°
2026-04-27 18:56 -10.36798 -75.39976 34061 ft 475 kts 227°
2026-04-27 18:56 -10.41291 -75.44905 34073 ft 474 kts 228°
2026-04-27 18:57 -10.45758 -75.49808 34109 ft 471 kts 228°
2026-04-27 18:57 -10.50196 -75.54679 34113 ft 469 kts 228°
2026-04-27 18:58 -10.54596 -75.59512 34117 ft 468 kts 228°
2026-04-27 18:58 -10.59019 -75.64373 34156 ft 468 kts 228°
2026-04-27 18:59 -10.63442 -75.69237 34148 ft 468 kts 228°
2026-04-27 18:59 -10.67791 -75.74019 34135 ft 448 kts 229°
2026-04-27 19:00 -10.71920 -75.78560 34167 ft 436 kts 229°
2026-04-27 19:00 -10.76017 -75.83073 34165 ft 432 kts 229°
2026-04-27 19:01 -10.80080 -75.87548 34163 ft 429 kts 229°
2026-04-27 19:01 -10.84126 -75.92008 34155 ft 429 kts 229°
2026-04-27 19:02 -10.88221 -75.96524 34162 ft 437 kts 229°
2026-04-27 19:02 -10.92323 -76.01048 34152 ft 437 kts 229°
2026-04-27 19:03 -10.96201 -76.05785 34152 ft 433 kts 238°
2026-04-27 19:03 -10.99104 -76.11137 34135 ft 430 kts 248°
2026-04-27 19:04 -11.01444 -76.16741 34113 ft 430 kts 249°
2026-04-27 19:04 -11.03753 -76.22323 34140 ft 432 kts 248°
2026-04-27 19:05 -11.06114 -76.27967 34137 ft 435 kts 248°
2026-04-27 19:05 -11.08503 -76.33647 34140 ft 437 kts 249°
2026-04-27 19:06 -11.10895 -76.39335 34143 ft 438 kts 249°
2026-04-27 19:06 -11.13294 -76.45043 34146 ft 437 kts 249°
2026-04-27 19:07 -11.15660 -76.50678 34115 ft 422 kts 248°
2026-04-27 19:07 -11.16795 -76.53380 34140 ft 408 kts 248°
2026-04-27 19:07 -11.17893 -76.55997 34124 ft 395 kts 248°
2026-04-27 19:08 -11.19500 -76.61265 34165 ft 399 kts 270°
2026-04-27 19:08 -11.19182 -76.64089 34157 ft 407 kts 288°
2026-04-27 19:08 -11.17992 -76.66711 34171 ft 410 kts 306°
2026-04-27 19:08 -11.16025 -76.68819 34159 ft 414 kts 324°
2026-04-27 19:09 -11.13448 -76.70163 34167 ft 421 kts 343°
2026-04-27 19:09 -11.10531 -76.70567 34162 ft 428 kts
2026-04-27 19:09 -11.07608 -76.69938 34167 ft 434 kts 22°
2026-04-27 19:09 -11.05043 -76.68312 34170 ft 439 kts 41°
2026-04-27 19:10 -11.03130 -76.65885 34152 ft 441 kts 62°
2026-04-27 19:10 -11.00730 -76.60215 34163 ft 439 kts 65°
2026-04-27 19:11 -10.98304 -76.54493 34164 ft 439 kts 64°
2026-04-27 19:11 -10.95865 -76.48788 34118 ft 438 kts 72°
2026-04-27 19:11 -10.95465 -76.45727 34145 ft 439 kts 95°
2026-04-27 19:12 -10.96199 -76.42716 34137 ft 440 kts 117°
2026-04-27 19:12 -10.97960 -76.40193 34140 ft 439 kts 139°
2026-04-27 19:12 -11.00471 -76.38463 34152 ft 437 kts 159°
2026-04-27 19:12 -11.03397 -76.37665 34134 ft 436 kts 178°
2026-04-27 19:13 -11.06368 -76.37882 34133 ft 433 kts 198°
2026-04-27 19:13 -11.09097 -76.39105 34147 ft 429 kts 219°
2026-04-27 19:13 -11.11254 -76.41172 34149 ft 426 kts 236°
2026-04-27 19:13 -11.12668 -76.43796 34156 ft 422 kts 248°
2026-04-27 19:14 -11.13823 -76.46559 34147 ft 426 kts 248°
2026-04-27 19:14 -11.16155 -76.52102 34141 ft 423 kts 248°
2026-04-27 19:15 -11.18539 -76.57571 34143 ft 423 kts 248°
2026-04-27 19:15 -11.19524 -76.60362 34134 ft 416 kts 262°
2026-04-27 19:15 -11.19634 -76.63285 34156 ft 414 kts 278°
2026-04-27 19:15 -11.18948 -76.66092 34163 ft 416 kts 293°
2026-04-27 19:16 -11.17559 -76.68683 34163 ft 420 kts 307°
2026-04-27 19:16 -11.12975 -76.72355 34167 ft 426 kts 338°
2026-04-27 19:16 -11.10107 -76.73052 34148 ft 424 kts 356°
2026-04-27 19:17 -11.07183 -76.72871 34155 ft 422 kts 11°
2026-04-27 19:17 -11.04428 -76.71862 34152 ft 422 kts 28°
2026-04-27 19:17 -11.02026 -76.70133 34172 ft 425 kts 40°
2026-04-27 19:17 -11.00053 -76.67859 34168 ft 431 kts 57°
2026-04-27 19:18 -10.98725 -76.65147 34180 ft 437 kts 65°
2026-04-27 19:18 -10.96348 -76.59362 34164 ft 444 kts 65°
2026-04-27 19:19 -10.93889 -76.53601 34148 ft 441 kts 64°
2026-04-27 19:19 -10.91682 -76.47849 34116 ft 435 kts 81°
2026-04-27 19:19 -10.91668 -76.44762 34148 ft 439 kts 99°
2026-04-27 19:20 -10.92549 -76.41792 34148 ft 442 kts 116°
2026-04-27 19:20 -10.94238 -76.39231 34139 ft 444 kts 135°
2026-04-27 19:20 -10.96616 -76.37244 34144 ft 444 kts 151°
2026-04-27 19:20 -10.99442 -76.36007 34140 ft 443 kts 168°
2026-04-27 19:21 -11.02490 -76.35638 34120 ft 441 kts 185°
2026-04-27 19:21 -11.05488 -76.36187 34139 ft 437 kts 202°
2026-04-27 19:21 -11.08174 -76.37591 34135 ft 434 kts 219°
2026-04-27 19:21 -11.10391 -76.39646 34138 ft 430 kts 233°
2026-04-27 19:22 -11.11991 -76.42190 34115 ft 425 kts 247°
2026-04-27 19:22 -11.14309 -76.47727 34144 ft 425 kts 249°
2026-04-27 19:23 -11.16633 -76.53214 34142 ft 425 kts 248°
2026-04-27 19:23 -11.19035 -76.58710 33714 ft 422 kts 248°
2026-04-27 19:23 -11.20212 -76.61475 32730 ft 432 kts 248°
2026-04-27 19:24 -11.21408 -76.64341 31574 ft 446 kts 248°
2026-04-27 19:24 -11.22635 -76.67294 30677 ft 455 kts 248°
2026-04-27 19:24 -11.23880 -76.70275 29983 ft 456 kts 247°
2026-04-27 19:24 -11.25119 -76.73232 29380 ft 453 kts 247°
2026-04-27 19:25 -11.26354 -76.76175 28790 ft 450 kts 247°
2026-04-27 19:25 -11.27567 -76.79069 28130 ft 450 kts 247°
2026-04-27 19:25 -11.28795 -76.82002 27404 ft 451 kts 247°
2026-04-27 19:25 -11.30025 -76.84940 26825 ft 449 kts 247°
2026-04-27 19:26 -11.31243 -76.87851 26302 ft 445 kts 247°
2026-04-27 19:26 -11.32459 -76.90760 25756 ft 444 kts 246°
2026-04-27 19:26 -11.33668 -76.93650 25223 ft 442 kts 246°
2026-04-27 19:26 -11.34872 -76.96532 24667 ft 441 kts 246°
2026-04-27 19:27 -11.36070 -76.99397 24146 ft 439 kts 246°
2026-04-27 19:27 -11.37252 -77.02228 23402 ft 435 kts 246°
2026-04-27 19:27 -11.38423 -77.05032 22135 ft 428 kts 246°
2026-04-27 19:27 -11.39589 -77.07824 20745 ft 427 kts 247°
2026-04-27 19:28 -11.40749 -77.10603 19448 ft 424 kts 247°
2026-04-27 19:28 -11.41900 -77.13361 18205 ft 421 kts 247°
2026-04-27 19:28 -11.43073 -77.16081 16913 ft 415 kts 242°
2026-04-27 19:28 -11.44761 -77.18416 15611 ft 408 kts 221°
2026-04-27 19:29 -11.47034 -77.20056 14706 ft 390 kts 213°
2026-04-27 19:29 -11.49207 -77.21580 14153 ft 366 kts 215°
2026-04-27 19:29 -11.51161 -77.23023 13880 ft 337 kts 215°
2026-04-27 19:29 -11.52982 -77.24379 13492 ft 317 kts 215°
2026-04-27 19:30 -11.54747 -77.25690 12812 ft 308 kts 215°
2026-04-27 19:30 -11.56467 -77.26954 12037 ft 303 kts 213°
2026-04-27 19:30 -11.58397 -77.27742 11200 ft 299 kts 184°
2026-04-27 19:30 -11.60422 -77.27438 10417 ft 295 kts 161°
2026-04-27 19:31 -11.62369 -77.26809 9621 ft 293 kts 164°
2026-04-27 19:31 -11.64339 -77.26264 8825 ft 290 kts 165°
2026-04-27 19:31 -11.66286 -77.25747 8074 ft 287 kts 166°
2026-04-27 19:31 -11.68184 -77.25249 7359 ft 284 kts 166°
2026-04-27 19:32 -11.70089 -77.24750 6663 ft 281 kts 166°
2026-04-27 19:32 -11.71954 -77.24334 6289 ft 280 kts 172°
2026-04-27 19:32 -11.73966 -77.24120 5542 ft 297 kts 175°
2026-04-27 19:32 -11.76073 -77.23921 4939 ft 307 kts 174°
2026-04-27 19:33 -11.78202 -77.23694 4433 ft 304 kts 174°
2026-04-27 19:33 -11.78878 -77.23618 4274 ft 297 kts 173°
2026-04-27 19:33 -11.81805 -77.22362 3725 ft 260 kts 142°
2026-04-27 19:33 -11.83219 -77.21311 3425 ft 244 kts 145°
2026-04-27 19:34 -11.84575 -77.20352 3228 ft 229 kts 145°
2026-04-27 19:34 -11.85879 -77.19527 3130 ft 213 kts 152°
2026-04-27 19:34 -11.86741 -77.19078 3077 ft 209 kts 154°
2026-04-27 19:34 -11.88043 -77.18435 2776 ft 201 kts 154°
2026-04-27 19:35 -11.89252 -77.17839 2539 ft 185 kts 154°
2026-04-27 19:35 -11.90702 -77.17122 2237 ft 166 kts 155°
2026-04-27 19:35 -11.91728 -77.16617 2040 ft 163 kts 156°
2026-04-27 19:35 -11.92741 -77.16113 1808 ft 160 kts 156°
2026-04-27 19:36 -11.93408 -77.15784 1683 ft 160 kts 156°
2026-04-27 19:36 -11.94405 -77.15296 1453 ft 157 kts 155°
2026-04-27 19:36 -11.95389 -77.14803 1250 ft 158 kts 155°
2026-04-27 19:36 -11.96377 -77.14312 1028 ft 157 kts 156°
2026-04-27 19:37 -11.97356 -77.13828 812 ft 155 kts 156°
2026-04-27 19:37 -11.98325 -77.13348 718 ft 155 kts 156°
2026-04-27 19:37 -11.99323 -77.12852 983 ft 161 kts 155°
2026-04-27 19:37 -12.00348 -77.12344 1497 ft 169 kts 155°
2026-04-27 19:38 -12.01195 -77.11928 1816 ft 184 kts 157°
2026-04-27 19:38 -12.02332 -77.11371 2322 ft 197 kts 155°
2026-04-27 19:38 -12.03617 -77.10738 2909 ft 210 kts 154°
2026-04-27 19:39 -12.04919 -77.10081 3040 ft 215 kts 153°
2026-04-27 19:39 -12.06302 -77.09516 3016 ft 214 kts 172°
2026-04-27 19:39 -12.07745 -77.09741 3039 ft 213 kts 208°
2026-04-27 19:39 -12.08801 -77.10776 3020 ft 214 kts 242°
2026-04-27 19:40 -12.09082 -77.12235 3029 ft 212 kts 278°
2026-04-27 19:40 -12.08566 -77.13627 3046 ft 210 kts 299°
2026-04-27 19:40 -12.07853 -77.14854 3001 ft 212 kts 301°
2026-04-27 19:40 -12.07713 -77.15086 2984 ft 212 kts 301°
2026-04-27 19:41 -12.06937 -77.16372 2862 ft 213 kts 301°
2026-04-27 19:41 -12.06136 -77.17620 2742 ft 211 kts 310°
2026-04-27 19:41 -12.04955 -77.18485 2639 ft 208 kts 333°
2026-04-27 19:41 -12.03682 -77.19131 2610 ft 201 kts 333°
2026-04-27 19:42 -12.02445 -77.19764 2540 ft 198 kts 332°
2026-04-27 19:42 -12.01226 -77.20387 2479 ft 194 kts 333°
2026-04-27 19:42 -12.00013 -77.21002 2405 ft 194 kts 333°
2026-04-27 19:42 -11.98800 -77.21614 2341 ft 193 kts 332°
2026-04-27 19:43 -11.97594 -77.22218 2266 ft 193 kts 332°
2026-04-27 19:43 -11.96387 -77.22813 2193 ft 192 kts 332°
2026-04-27 19:43 -11.95175 -77.23420 2142 ft 196 kts 334°
2026-04-27 19:43 -11.93854 -77.23729 2128 ft 199 kts
2026-04-27 19:44 -11.92629 -77.23185 2142 ft 197 kts 41°
2026-04-27 19:44 -11.91668 -77.22188 2153 ft 198 kts 46°
2026-04-27 19:44 -11.90740 -77.21157 2132 ft 193 kts 50°
2026-04-27 19:44 -11.90224 -77.19949 2124 ft 186 kts 88°
2026-04-27 19:45 -11.90458 -77.18674 2040 ft 182 kts 108°
2026-04-27 19:45 -11.90896 -77.17502 1737 ft 174 kts 128°
2026-04-27 19:45 -11.91830 -77.16849 1816 ft 168 kts 155°
2026-04-27 19:45 -11.92828 -77.16249 1740 ft 163 kts 150°
2026-04-27 19:46 -11.93788 -77.15645 1614 ft 163 kts 152°
2026-04-27 19:46 -11.94792 -77.15103 1380 ft 163 kts 155°
2026-04-27 19:46 -11.95794 -77.14603 1140 ft 157 kts 156°
2026-04-27 19:46 -11.96749 -77.14127 945 ft 153 kts 155°
2026-04-27 19:47 -11.97709 -77.13652 748 ft 154 kts 156°
2026-04-27 19:47 -11.98676 -77.13174 567 ft 155 kts 155°
2026-04-27 19:47 -11.99644 -77.12693 366 ft 157 kts 156°
2026-04-27 19:47 -12.00644 -77.12168 142 ft 163 kts 160°
2026-04-27 19:48 -12.01642 -77.11704 61 ft 145 kts 154°
2026-04-27 19:48 -12.02413 -77.11323 95 ft 101 kts 153°
2026-04-27 19:48 -12.02908 -77.11077 107 ft 62 kts 155°
2026-04-27 19:48 -12.03282 -77.10891 112 ft 57 kts 154°
2026-04-27 19:49 -12.03574 -77.10748 122 ft 30 kts 154°
2026-04-27 19:49 -12.03635 -77.10802 122 ft 14 kts 253°
2026-04-27 19:49 -12.03622 -77.10904 115 ft 16 kts 313°
2026-04-27 19:49 -12.03517 -77.10965 111 ft 19 kts 332°
2026-04-27 19:50 -12.03388 -77.11018 109 ft 21 kts 337°
2026-04-27 19:50 -12.03248 -77.11090 103 ft 23 kts 332°
2026-04-27 19:50 -12.03099 -77.11165 101 ft 24 kts 334°
2026-04-27 19:50 -12.02949 -77.11237 96 ft 24 kts 335°
2026-04-27 19:51 -12.02795 -77.11312 94 ft 25 kts 334°
2026-04-27 19:51 -12.02665 -77.11380 92 ft 14 kts 322°
2026-04-27 19:51 -12.02656 -77.11457 88 ft 12 kts 257°
2026-04-27 19:51 -12.02686 -77.11535 88 ft 12 kts 251°
2026-04-27 19:52 -12.02666 -77.11611 89 ft 12 kts 321°
2026-04-27 19:52 -12.02594 -77.11650 89 ft 12 kts 334°
2026-04-27 19:52 -12.02518 -77.11685 87 ft 12 kts 334°
2026-04-27 19:52 -12.02451 -77.11719 89 ft 8 kts 330°
2026-04-27 19:53 -12.02465 -77.11794 87 ft 0 kts 243°
2026-04-27 19:53 -12.02468 -77.11800 87 ft 2 kts 244°
2026-04-27 19:53 -12.02471 -77.11807 89 ft 0 kts 243°